GFSNGP_prec_precacc24_159.txt.gz
Total_Precipitation_Accumulation
0.32 0.21 0.14 0.12 0.05 0.01 0.03 0.06 0.16 0.11 0.04 0.01 0.00 0.02 0.02 0.01 0.02 0.03 0.02 0.01 0.01 0.01 0.01 0.00 0.00 0.00 0.00 0.00 0.00 0.00 0.00 0.01 0.01 0.00 0.00 0.00 0.00 0.00 0.00 0.00 0.00 0.00 0.01 0.01
0.30 0.36 0.28 0.14 0.03 0.03 0.10 0.15 0.23 0.22 0.08 0.02 0.03 0.05 0.04 0.04 0.05 0.06 0.05 0.06 0.08 0.11 0.12 0.10 0.08 0.05 0.03 0.02 0.02 0.02 0.01 0.01 0.01 0.01 0.01 0.01 0.01 0.02 0.04 0.03 0.01 0.02 0.03 0.03
0.17 0.20 0.29 0.17 0.02 0.04 0.06 0.13 0.23 0.28 0.13 0.07 0.11 0.10 0.03 0.02 0.04 0.03 0.03 0.03 0.04 0.03 0.02 0.03 0.04 0.06 0.06 0.06 0.06 0.07 0.07 0.04 0.04 0.05 0.05 0.07 0.11 0.16 0.15 0.10 0.08 0.10 0.10 0.08
0.14 0.10 0.26 0.06 0.01 0.01 0.01 0.03 0.03 0.03 0.02 0.02 0.05 0.06 0.02 0.02 0.04 0.04 0.09 0.10 0.10 0.11 0.12 0.17 0.20 0.23 0.27 0.30 0.34 0.36 0.33 0.33 0.38 0.36 0.35 0.34 0.37 0.37 0.30 0.23 0.21 0.20 0.14 0.14
0.16 0.09 0.03 0.00 0.00 0.00 0.00 0.00 0.00 0.00 0.00 0.00 0.00 0.02 0.03 0.01 0.02 0.02 0.07 0.13 0.17 0.24 0.33 0.44 0.52 0.67 0.82 0.86 0.84 0.80 0.80 0.76 0.73 0.69 0.69 0.66 0.64 0.57 0.47 0.38 0.38 0.29 0.19 0.18
0.15 0.10 0.02 0.00 0.00 0.00 0.01 0.01 0.00 0.00 0.00 0.00 0.00 0.03 0.06 0.05 0.07 0.03 0.02 0.04 0.08 0.16 0.27 0.39 0.54 0.57 0.71 0.94 1.13 1.15 1.07 1.02 0.96 0.84 0.76 0.71 0.62 0.52 0.44 0.38 0.33 0.20 0.20 0.14
0.17 0.16 0.02 0.00 0.00 0.01 0.04 0.02 0.00 0.00 0.01 0.01 0.05 0.06 0.10 0.07 0.05 0.02 0.00 0.00 0.00 0.01 0.04 0.09 0.24 0.41 0.56 0.76 0.97 1.08 1.25 1.05 0.87 0.73 0.62 0.53 0.43 0.34 0.32 0.27 0.19 0.16 0.17 0.08
0.33 0.47 0.18 0.01 0.01 0.05 0.04 0.02 0.02 0.01 0.02 0.03 0.02 0.06 0.24 0.20 0.05 0.01 0.00 0.00 0.00 0.01 0.01 0.02 0.03 0.08 0.19 0.44 0.78 1.03 1.10 0.90 0.58 0.48 0.40 0.36 0.29 0.28 0.24 0.19 0.16 0.16 0.12 0.07
0.02 0.07 0.02 0.01 0.02 0.01 0.01 0.01 0.00 0.01 0.01 0.06 0.17 0.09 0.06 0.02 0.01 0.01 0.00 0.00 0.00 0.00 0.01 0.01 0.01 0.03 0.06 0.17 0.34 0.66 0.74 0.58 0.45 0.38 0.31 0.24 0.24 0.24 0.22 0.17 0.14 0.12 0.08 0.05
0.05 0.00 0.00 0.00 0.00 0.00 0.00 0.00 0.00 0.00 0.00 0.02 0.10 0.11 0.03 0.01 0.00 0.00 0.00 0.00 0.00 0.00 0.00 0.02 0.01 0.01 0.03 0.17 0.30 0.36 0.39 0.42 0.39 0.32 0.32 0.29 0.20 0.17 0.15 0.12 0.09 0.06 0.03 0.02
0.02 0.00 0.00 0.00 0.00 0.01 0.02 0.01 0.00 0.00 0.00 0.02 0.03 0.03 0.02 0.01 0.00 0.00 0.00 0.00 0.00 0.00 0.00 0.01 0.01 0.02 0.07 0.16 0.26 0.35 0.40 0.36 0.34 0.31 0.24 0.21 0.18 0.12 0.08 0.06 0.03 0.01 0.01 0.00
0.01 0.00 0.03 0.01 0.01 0.01 0.02 0.01 0.00 0.01 0.01 0.02 0.03 0.08 0.07 0.03 0.01 0.00 0.00 0.00 0.00 0.00 0.00 0.01 0.02 0.08 0.15 0.14 0.11 0.14 0.19 0.23 0.24 0.21 0.16 0.12 0.12 0.12 0.08 0.03 0.00 0.00 0.00 0.00
0.01 0.00 0.01 0.00 0.00 0.00 0.00 0.00 0.00 0.02 0.04 0.07 0.19 0.21 0.14 0.14 0.03 0.00 0.00 0.00 0.00 0.00 0.00 0.01 0.04 0.11 0.17 0.17 0.12 0.09 0.06 0.07 0.12 0.10 0.07 0.06 0.06 0.06 0.07 0.04 0.01 0.00 0.00 0.00
0.04 0.02 0.01 0.00 0.00 0.01 0.01 0.01 0.02 0.02 0.03 0.04 0.10 0.12 0.10 0.02 0.00 0.00 0.00 0.00 0.00 0.01 0.02 0.04 0.09 0.15 0.19 0.19 0.21 0.20 0.20 0.11 0.13 0.10 0.08 0.07 0.06 0.06 0.05 0.02 0.02 0.03 0.04 0.01
0.04 0.04 0.01 0.01 0.02 0.02 0.03 0.11 0.20 0.18 0.17 0.20 0.17 0.09 0.01 0.00 0.01 0.01 0.02 0.02 0.03 0.05 0.07 0.12 0.16 0.23 0.24 0.23 0.22 0.24 0.22 0.20 0.17 0.14 0.10 0.06 0.05 0.05 0.04 0.02 0.01 0.01 0.03 0.05
0.03 0.06 0.05 0.05 0.03 0.03 0.01 0.02 0.24 0.33 0.30 0.21 0.13 0.01 0.03 0.04 0.04 0.04 0.06 0.10 0.10 0.12 0.15 0.19 0.23 0.28 0.32 0.32 0.31 0.29 0.23 0.18 0.14 0.12 0.10 0.08 0.06 0.04 0.03 0.02 0.00 0.01 0.01 0.02
0.05 0.13 0.16 0.24 0.17 0.06 0.01 0.03 0.12 0.03 0.09 0.07 0.02 0.02 0.01 0.01 0.03 0.05 0.09 0.11 0.08 0.07 0.08 0.09 0.12 0.15 0.16 0.15 0.13 0.12 0.13 0.14 0.11 0.08 0.08 0.06 0.04 0.02 0.01 0.01 0.00 0.00 0.01 0.01
0.01 0.02 0.04 0.23 0.03 0.00 0.00 0.01 0.02 0.00 0.00 0.00 0.00 0.00 0.00 0.01 0.01 0.04 0.08 0.12 0.16 0.17 0.16 0.11 0.08 0.09 0.11 0.14 0.11 0.09 0.09 0.07 0.07 0.06 0.05 0.03 0.02 0.01 0.00 0.00 0.00 0.00 0.01 0.01
0.00 0.00 0.00 0.04 0.01 0.01 0.02 0.01 0.01 0.00 0.00 0.00 0.00 0.00 0.00 0.00 0.00 0.03 0.06 0.08 0.09 0.11 0.15 0.16 0.12 0.09 0.09 0.11 0.07 0.05 0.04 0.04 0.05 0.04 0.03 0.03 0.02 0.01 0.01 0.01 0.00 0.01 0.03 0.01
0.00 0.00 0.00 0.00 0.00 0.01 0.00 0.00 0.00 0.00 0.00 0.00 0.00 0.00 0.00 0.01 0.02 0.03 0.03 0.04 0.06 0.08 0.11 0.12 0.12 0.09 0.07 0.06 0.04 0.03 0.02 0.02 0.01 0.02 0.02 0.02 0.02 0.01 0.01 0.01 0.01 0.03 0.02 0.01
0.00 0.00 0.00 0.00 0.00 0.00 0.00 0.00 0.00 0.00 0.00 0.00 0.00 0.00 0.00 0.01 0.01 0.01 0.02 0.05 0.08 0.08 0.10 0.13 0.12 0.10 0.08 0.06 0.05 0.03 0.02 0.02 0.01 0.01 0.01 0.01 0.01 0.01 0.01 0.01 0.02 0.03 0.03 0.02
0.00 0.00 0.00 0.00 0.00 0.00 0.00 0.00 0.00 0.00 0.00 0.00 0.01 0.00 0.01 0.02 0.03 0.04 0.02 0.02 0.06 0.04 0.04 0.07 0.08 0.09 0.08 0.06 0.05 0.04 0.03 0.02 0.02 0.01 0.01 0.01 0.01 0.01 0.02 0.02 0.01 0.02 0.03 0.02
0.00 0.00 0.00 0.00 0.00 0.00 0.00 0.00 0.00 0.00 0.00 0.00 0.00 0.00 0.00 0.01 0.00 0.01 0.02 0.03 0.03 0.02 0.02 0.03 0.06 0.07 0.07 0.07 0.04 0.03 0.02 0.02 0.01 0.01 0.01 0.01 0.01 0.02 0.02 0.02 0.01 0.02 0.03 0.02
0.00 0.00 0.00 0.00 0.00 0.00 0.00 0.01 0.00 0.01 0.01 0.01 0.01 0.01 0.01 0.01 0.03 0.01 0.00 0.01 0.01 0.01 0.01 0.03 0.03 0.04 0.05 0.06 0.03 0.03 0.02 0.04 0.03 0.01 0.01 0.01 0.02 0.02 0.02 0.01 0.01 0.01 0.01 0.01
0.00 0.00 0.00 0.01 0.01 0.00 0.00 0.01 0.01 0.01 0.01 0.01 0.01 0.01 0.01 0.00 0.01 0.01 0.00 0.01 0.01 0.01 0.01 0.02 0.02 0.03 0.06 0.05 0.03 0.03 0.04 0.05 0.04 0.02 0.01 0.01 0.01 0.01 0.01 0.01 0.01 0.01 0.01 0.01
0.00 0.00 0.00 0.00 0.00 0.00 0.00 0.00 0.00 0.01 0.01 0.02 0.02 0.02 0.01 0.00 0.00 0.01 0.01 0.01 0.01 0.01 0.01 0.02 0.02 0.04 0.04 0.03 0.03 0.03 0.03 0.03 0.02 0.01 0.01 0.01 0.00 0.01 0.01 0.00 0.00 0.00 0.00 0.00
0.00 0.01 0.00 0.01 0.00 0.00 0.00 0.00 0.00 0.01 0.00 0.00 0.02 0.02 0.01 0.01 0.02 0.01 0.01 0.02 0.02 0.01 0.01 0.02 0.02 0.02 0.02 0.01 0.02 0.02 0.01 0.00 0.00 0.00 0.00 0.00 0.00 0.00 0.00 0.00 0.00 0.00 0.00 0.00

GFSNGP_prec_precacc24_162.txt.gz
Total_Precipitation_Accumulation
0.27 0.19 0.13 0.11 0.05 0.01 0.03 0.05 0.15 0.11 0.04 0.01 0.00 0.00 0.00 0.00 0.00 0.00 0.00 0.00 0.00 0.01 0.01 0.00 0.00 0.00 0.00 0.00 0.00 0.00 0.00 0.01 0.01 0.00 0.00 0.00 0.00 0.00 0.00 0.00 0.00 0.00 0.01 0.02
0.14 0.18 0.18 0.10 0.01 0.02 0.05 0.12 0.20 0.22 0.08 0.02 0.03 0.04 0.02 0.00 0.00 0.00 0.03 0.05 0.07 0.11 0.12 0.10 0.08 0.05 0.03 0.02 0.02 0.02 0.01 0.01 0.01 0.01 0.01 0.01 0.01 0.02 0.05 0.06 0.05 0.06 0.06 0.04
0.11 0.08 0.16 0.11 0.01 0.03 0.04 0.11 0.21 0.27 0.13 0.07 0.11 0.10 0.03 0.01 0.02 0.01 0.02 0.03 0.04 0.03 0.02 0.03 0.04 0.06 0.06 0.06 0.06 0.07 0.07 0.04 0.04 0.05 0.06 0.08 0.13 0.20 0.22 0.18 0.16 0.17 0.17 0.16
0.12 0.09 0.19 0.02 0.00 0.01 0.01 0.02 0.03 0.03 0.01 0.02 0.05 0.06 0.02 0.02 0.04 0.04 0.08 0.08 0.09 0.10 0.12 0.16 0.20 0.23 0.27 0.30 0.34 0.36 0.33 0.33 0.38 0.37 0.36 0.38 0.42 0.45 0.39 0.33 0.31 0.30 0.25 0.27
0.16 0.08 0.03 0.00 0.00 0.00 0.00 0.00 0.00 0.00 0.00 0.00 0.00 0.02 0.03 0.01 0.02 0.02 0.06 0.12 0.16 0.23 0.32 0.43 0.52 0.67 0.82 0.86 0.84 0.80 0.80 0.76 0.73 0.69 0.70 0.73 0.76 0.72 0.63 0.54 0.51 0.37 0.31 0.35
0.15 0.10 0.02 0.00 0.00 0.00 0.00 0.01 0.00 0.00 0.00 0.00 0.00 0.03 0.06 0.05 0.07 0.02 0.01 0.02 0.06 0.15 0.26 0.39 0.54 0.57 0.71 0.94 1.13 1.15 1.07 1.02 0.96 0.84 0.77 0.76 0.71 0.63 0.55 0.48 0.40 0.28 0.32 0.29
0.16 0.15 0.02 0.00 0.00 0.01 0.04 0.02 0.00 0.00 0.01 0.01 0.05 0.06 0.10 0.07 0.05 0.01 0.00 0.00 0.00 0.01 0.04 0.09 0.24 0.41 0.56 0.76 0.97 1.08 1.25 1.05 0.87 0.73 0.63 0.55 0.47 0.38 0.35 0.32 0.26 0.28 0.30 0.19
0.32 0.44 0.18 0.01 0.01 0.05 0.04 0.02 0.02 0.01 0.02 0.03 0.02 0.06 0.24 0.20 0.05 0.01 0.00 0.00 0.00 0.01 0.01 0.02 0.03 0.08 0.19 0.44 0.78 1.03 1.10 0.90 0.58 0.48 0.41 0.37 0.32 0.33 0.28 0.23 0.22 0.24 0.21 0.15
0.02 0.05 0.02 0.01 0.02 0.01 0.01 0.01 0.00 0.01 0.01 0.06 0.17 0.09 0.06 0.02 0.01 0.00 0.00 0.00 0.00 0.00 0.01 0.01 0.01 0.02 0.06 0.17 0.34 0.66 0.74 0.58 0.45 0.39 0.32 0.26 0.25 0.27 0.26 0.22 0.19 0.19 0.15 0.12
0.05 0.00 0.00 0.00 0.00 0.00 0.00 0.00 0.00 0.00 0.00 0.02 0.10 0.11 0.03 0.02 0.01 0.01 0.00 0.00 0.00 0.00 0.00 0.01 0.01 0.00 0.03 0.17 0.30 0.36 0.39 0.43 0.40 0.34 0.34 0.31 0.23 0.20 0.18 0.17 0.14 0.12 0.10 0.08
0.02 0.00 0.00 0.00 0.00 0.00 0.00 0.00 0.00 0.00 0.00 0.02 0.03 0.03 0.02 0.02 0.01 0.00 0.00 0.00 0.00 0.00 0.00 0.00 0.01 0.02 0.07 0.16 0.26 0.36 0.41 0.38 0.36 0.33 0.26 0.23 0.21 0.16 0.12 0.11 0.06 0.05 0.04 0.03
0.01 0.00 0.03 0.01 0.00 0.01 0.02 0.01 0.00 0.00 0.01 0.02 0.03 0.08 0.07 0.03 0.02 0.01 0.00 0.00 0.00 0.00 0.00 0.01 0.02 0.08 0.15 0.14 0.11 0.14 0.20 0.25 0.26 0.23 0.18 0.14 0.13 0.16 0.15 0.11 0.07 0.03 0.00 0.00
0.01 0.00 0.01 0.00 0.00 0.00 0.00 0.00 0.00 0.02 0.04 0.07 0.19 0.21 0.14 0.16 0.07 0.01 0.01 0.01 0.00 0.00 0.00 0.01 0.04 0.11 0.17 0.18 0.13 0.10 0.06 0.08 0.14 0.13 0.10 0.09 0.10 0.10 0.13 0.13 0.09 0.05 0.01 0.00
0.04 0.02 0.01 0.00 0.00 0.01 0.01 0.01 0.02 0.02 0.03 0.04 0.10 0.12 0.11 0.06 0.01 0.00 0.01 0.01 0.00 0.01 0.02 0.04 0.09 0.15 0.19 0.20 0.21 0.21 0.25 0.20 0.15 0.12 0.12 0.12 0.09 0.10 0.10 0.08 0.08 0.10 0.08 0.01
0.03 0.04 0.01 0.01 0.02 0.02 0.03 0.11 0.20 0.18 0.17 0.20 0.17 0.14 0.03 0.00 0.00 0.01 0.01 0.01 0.03 0.05 0.07 0.12 0.16 0.23 0.25 0.24 0.22 0.25 0.24 0.23 0.18 0.16 0.12 0.08 0.07 0.08 0.08 0.07 0.05 0.03 0.05 0.08
0.02 0.04 0.05 0.05 0.03 0.03 0.01 0.02 0.24 0.34 0.38 0.27 0.18 0.07 0.04 0.04 0.03 0.03 0.04 0.06 0.09 0.12 0.15 0.19 0.23 0.28 0.32 0.33 0.31 0.30 0.25 0.23 0.20 0.16 0.12 0.10 0.08 0.06 0.05 0.03 0.02 0.02 0.01 0.03
0.04 0.12 0.16 0.25 0.18 0.06 0.02 0.04 0.13 0.07 0.20 0.19 0.08 0.03 0.01 0.00 0.01 0.03 0.05 0.06 0.05 0.05 0.07 0.09 0.13 0.16 0.16 0.15 0.13 0.12 0.14 0.15 0.11 0.09 0.08 0.06 0.05 0.03 0.01 0.01 0.01 0.01 0.01 0.01
0.01 0.02 0.05 0.25 0.04 0.02 0.01 0.04 0.07 0.01 0.01 0.02 0.00 0.00 0.00 0.00 0.00 0.02 0.05 0.07 0.10 0.11 0.11 0.08 0.08 0.10 0.12 0.14 0.11 0.09 0.09 0.08 0.07 0.07 0.05 0.04 0.02 0.01 0.00 0.01 0.00 0.00 0.01 0.01
0.00 0.00 0.00 0.04 0.02 0.01 0.02 0.02 0.01 0.00 0.00 0.00 0.00 0.00 0.00 0.00 0.00 0.01 0.03 0.04 0.06 0.08 0.12 0.13 0.12 0.10 0.10 0.11 0.07 0.05 0.04 0.05 0.05 0.05 0.03 0.03 0.02 0.01 0.01 0.01 0.00 0.01 0.03 0.01
0.00 0.00 0.00 0.00 0.01 0.04 0.02 0.00 0.00 0.00 0.00 0.00 0.00 0.00 0.00 0.01 0.01 0.01 0.02 0.03 0.05 0.06 0.10 0.12 0.12 0.10 0.07 0.06 0.04 0.03 0.02 0.02 0.02 0.02 0.02 0.02 0.02 0.01 0.01 0.01 0.02 0.03 0.03 0.01
0.00 0.00 0.00 0.00 0.00 0.00 0.00 0.00 0.00 0.00 0.00 0.00 0.00 0.00 0.00 0.01 0.01 0.01 0.01 0.03 0.05 0.06 0.09 0.13 0.13 0.10 0.08 0.06 0.05 0.04 0.03 0.03 0.01 0.01 0.01 0.01 0.01 0.01 0.01 0.02 0.03 0.03 0.04 0.02
0.00 0.00 0.01 0.00 0.00 0.00 0.00 0.00 0.00 0.00 0.00 0.00 0.00 0.00 0.00 0.01 0.01 0.02 0.01 0.01 0.02 0.03 0.05 0.07 0.08 0.09 0.08 0.06 0.05 0.04 0.03 0.02 0.02 0.01 0.01 0.01 0.01 0.01 0.02 0.02 0.02 0.02 0.03 0.02
0.00 0.01 0.01 0.00 0.00 0.00 0.01 0.00 0.00 0.00 0.00 0.00 0.00 0.00 0.00 0.00 0.00 0.01 0.01 0.01 0.01 0.02 0.02 0.03 0.06 0.07 0.07 0.08 0.04 0.03 0.02 0.02 0.01 0.01 0.01 0.01 0.01 0.02 0.02 0.02 0.01 0.02 0.03 0.02
0.00 0.00 0.01 0.01 0.01 0.01 0.00 0.01 0.01 0.01 0.01 0.01 0.01 0.01 0.01 0.01 0.02 0.00 0.00 0.00 0.00 0.01 0.01 0.03 0.03 0.04 0.05 0.06 0.03 0.03 0.02 0.04 0.03 0.01 0.01 0.01 0.02 0.02 0.02 0.01 0.01 0.01 0.01 0.01
0.00 0.00 0.01 0.02 0.02 0.01 0.01 0.01 0.00 0.01 0.01 0.01 0.01 0.01 0.01 0.00 0.01 0.01 0.00 0.00 0.01 0.01 0.02 0.02 0.02 0.03 0.06 0.05 0.03 0.03 0.04 0.05 0.04 0.02 0.01 0.01 0.01 0.01 0.01 0.01 0.01 0.01 0.01 0.01
0.00 0.00 0.00 0.00 0.00 0.00 0.00 0.00 0.00 0.01 0.01 0.02 0.02 0.02 0.01 0.00 0.00 0.00 0.01 0.01 0.01 0.01 0.02 0.02 0.02 0.04 0.04 0.03 0.03 0.03 0.03 0.03 0.02 0.02 0.01 0.01 0.01 0.01 0.01 0.00 0.00 0.00 0.00 0.00
0.00 0.00 0.00 0.00 0.00 0.00 0.00 0.00 0.00 0.01 0.00 0.01 0.02 0.02 0.01 0.01 0.01 0.01 0.01 0.01 0.02 0.01 0.02 0.02 0.02 0.03 0.02 0.02 0.02 0.02 0.01 0.01 0.01 0.01 0.01 0.01 0.00 0.00 0.00 0.00 0.00 0.00 0.00 0.00

GFSNGP_prec_precacc24_168.txt.gz
Total_Precipitation_Accumulation
0.00 0.00 0.00 0.00 0.00 0.00 0.00 0.01 0.07 0.04 0.04 0.01 0.01 0.00 0.00 0.00 0.00 0.00 0.00 0.00 0.00 0.00 0.00 0.00 0.00 0.00 0.00 0.00 0.00 0.00 0.00 0.01 0.01 0.00 0.00 0.00 0.00 0.00 0.00 0.00 0.00 0.01 0.01 0.03
0.00 0.00 0.00 0.00 0.00 0.00 0.00 0.00 0.00 0.01 0.01 0.00 0.00 0.00 0.00 0.00 0.00 0.00 0.00 0.00 0.00 0.00 0.00 0.00 0.00 0.01 0.01 0.01 0.01 0.01 0.01 0.01 0.01 0.01 0.01 0.01 0.01 0.02 0.05 0.06 0.05 0.08 0.09 0.09
0.05 0.00 0.05 0.07 0.00 0.00 0.00 0.00 0.00 0.01 0.00 0.00 0.00 0.02 0.02 0.01 0.01 0.01 0.02 0.01 0.01 0.02 0.01 0.02 0.03 0.05 0.05 0.04 0.04 0.05 0.05 0.04 0.04 0.05 0.06 0.08 0.13 0.20 0.22 0.18 0.17 0.24 0.28 0.29
0.15 0.09 0.19 0.02 0.00 0.00 0.00 0.00 0.00 0.00 0.00 0.00 0.00 0.00 0.00 0.01 0.03 0.03 0.06 0.08 0.09 0.10 0.11 0.16 0.18 0.19 0.19 0.19 0.19 0.23 0.31 0.33 0.38 0.37 0.36 0.38 0.42 0.45 0.40 0.37 0.38 0.40 0.38 0.41
0.25 0.17 0.06 0.00 0.00 0.00 0.00 0.00 0.00 0.00 0.00 0.00 0.00 0.00 0.00 0.00 0.01 0.02 0.05 0.10 0.15 0.22 0.32 0.42 0.48 0.60 0.74 0.76 0.75 0.74 0.77 0.76 0.73 0.69 0.70 0.73 0.76 0.72 0.65 0.60 0.59 0.47 0.42 0.47
0.27 0.21 0.09 0.01 0.00 0.00 0.00 0.01 0.00 0.00 0.00 0.00 0.00 0.01 0.06 0.04 0.06 0.02 0.00 0.01 0.05 0.12 0.25 0.38 0.53 0.56 0.69 0.89 1.09 1.12 1.05 1.01 0.96 0.84 0.77 0.76 0.71 0.64 0.58 0.51 0.44 0.34 0.42 0.38
0.18 0.16 0.03 0.00 0.00 0.01 0.04 0.02 0.00 0.00 0.01 0.01 0.05 0.06 0.10 0.07 0.05 0.01 0.00 0.00 0.00 0.00 0.03 0.09 0.23 0.40 0.55 0.75 0.96 1.07 1.25 1.05 0.87 0.74 0.63 0.55 0.47 0.39 0.37 0.34 0.31 0.34 0.36 0.26
0.32 0.42 0.17 0.01 0.01 0.04 0.04 0.02 0.02 0.01 0.02 0.03 0.02 0.06 0.24 0.20 0.05 0.01 0.00 0.00 0.00 0.00 0.00 0.01 0.01 0.07 0.18 0.43 0.77 1.03 1.10 0.90 0.58 0.48 0.42 0.38 0.32 0.34 0.29 0.26 0.26 0.27 0.25 0.20
0.02 0.05 0.02 0.01 0.02 0.01 0.01 0.01 0.00 0.01 0.01 0.06 0.17 0.09 0.06 0.02 0.01 0.00 0.00 0.00 0.00 0.00 0.00 0.00 0.01 0.02 0.05 0.16 0.33 0.66 0.74 0.58 0.45 0.39 0.33 0.27 0.26 0.27 0.27 0.25 0.23 0.23 0.20 0.17
0.05 0.00 0.00 0.00 0.00 0.00 0.00 0.00 0.00 0.00 0.00 0.02 0.10 0.11 0.03 0.02 0.01 0.01 0.00 0.00 0.00 0.00 0.00 0.00 0.01 0.00 0.01 0.12 0.29 0.36 0.39 0.43 0.40 0.35 0.35 0.32 0.24 0.21 0.19 0.19 0.18 0.16 0.15 0.15
0.02 0.00 0.00 0.00 0.00 0.00 0.00 0.00 0.00 0.00 0.00 0.02 0.03 0.03 0.02 0.02 0.01 0.00 0.00 0.00 0.00 0.00 0.00 0.00 0.00 0.01 0.04 0.12 0.25 0.36 0.41 0.39 0.37 0.35 0.28 0.24 0.22 0.17 0.14 0.14 0.10 0.09 0.09 0.09
0.01 0.00 0.03 0.01 0.00 0.01 0.02 0.01 0.00 0.00 0.01 0.02 0.03 0.08 0.07 0.03 0.02 0.01 0.00 0.00 0.00 0.00 0.00 0.00 0.00 0.04 0.08 0.11 0.11 0.15 0.21 0.26 0.27 0.25 0.20 0.16 0.16 0.19 0.19 0.16 0.15 0.12 0.08 0.07
0.01 0.00 0.01 0.00 0.00 0.00 0.00 0.00 0.00 0.02 0.04 0.07 0.19 0.21 0.14 0.16 0.07 0.01 0.01 0.00 0.00 0.00 0.00 0.00 0.01 0.04 0.11 0.15 0.13 0.11 0.07 0.10 0.16 0.15 0.12 0.12 0.14 0.15 0.18 0.20 0.18 0.16 0.11 0.08
0.04 0.02 0.01 0.00 0.00 0.01 0.01 0.01 0.02 0.02 0.03 0.04 0.10 0.12 0.11 0.06 0.01 0.00 0.01 0.00 0.00 0.00 0.01 0.01 0.02 0.07 0.13 0.16 0.21 0.21 0.25 0.21 0.16 0.14 0.13 0.16 0.15 0.15 0.15 0.16 0.18 0.22 0.22 0.13
0.03 0.04 0.01 0.01 0.02 0.02 0.03 0.11 0.20 0.18 0.17 0.20 0.17 0.14 0.03 0.00 0.00 0.00 0.00 0.00 0.01 0.02 0.03 0.05 0.08 0.15 0.18 0.20 0.21 0.24 0.24 0.24 0.19 0.17 0.14 0.11 0.11 0.12 0.12 0.13 0.12 0.12 0.16 0.19
0.01 0.03 0.04 0.03 0.01 0.01 0.00 0.02 0.24 0.34 0.38 0.27 0.18 0.07 0.04 0.03 0.02 0.02 0.02 0.05 0.07 0.09 0.12 0.13 0.16 0.21 0.28 0.30 0.29 0.29 0.25 0.24 0.21 0.18 0.16 0.13 0.11 0.09 0.07 0.06 0.05 0.06 0.04 0.05
0.03 0.07 0.11 0.21 0.16 0.05 0.02 0.04 0.13 0.07 0.20 0.20 0.12 0.05 0.02 0.00 0.00 0.00 0.02 0.03 0.03 0.04 0.05 0.06 0.09 0.13 0.14 0.14 0.12 0.12 0.13 0.15 0.12 0.10 0.10 0.08 0.07 0.05 0.02 0.02 0.02 0.03 0.04 0.03
0.00 0.00 0.04 0.24 0.04 0.03 0.10 0.14 0.08 0.01 0.03 0.06 0.02 0.05 0.10 0.06 0.01 0.01 0.03 0.06 0.05 0.05 0.05 0.05 0.06 0.09 0.10 0.11 0.09 0.09 0.09 0.08 0.08 0.07 0.06 0.05 0.03 0.02 0.01 0.01 0.01 0.01 0.03 0.03
0.00 0.00 0.00 0.04 0.02 0.02 0.04 0.02 0.02 0.01 0.01 0.01 0.00 0.01 0.05 0.05 0.03 0.03 0.04 0.03 0.03 0.04 0.06 0.06 0.07 0.07 0.07 0.08 0.05 0.05 0.04 0.05 0.05 0.05 0.04 0.04 0.03 0.01 0.01 0.01 0.00 0.01 0.03 0.01
0.00 0.00 0.00 0.00 0.01 0.04 0.03 0.01 0.01 0.00 0.00 0.00 0.00 0.00 0.01 0.02 0.02 0.02 0.01 0.02 0.03 0.03 0.04 0.05 0.06 0.05 0.05 0.05 0.03 0.03 0.02 0.02 0.02 0.02 0.03 0.03 0.03 0.02 0.01 0.01 0.02 0.03 0.03 0.01
0.00 0.00 0.00 0.00 0.00 0.00 0.01 0.00 0.00 0.00 0.00 0.00 0.00 0.00 0.00 0.01 0.00 0.00 0.01 0.02 0.02 0.01 0.02 0.05 0.05 0.05 0.05 0.05 0.05 0.05 0.03 0.03 0.02 0.02 0.01 0.02 0.01 0.01 0.02 0.02 0.03 0.03 0.04 0.02
0.00 0.00 0.01 0.01 0.01 0.01 0.00 0.00 0.00 0.00 0.00 0.00 0.00 0.00 0.00 0.01 0.00 0.01 0.01 0.01 0.01 0.02 0.01 0.02 0.03 0.04 0.04 0.05 0.06 0.05 0.03 0.03 0.02 0.02 0.02 0.02 0.01 0.02 0.02 0.02 0.02 0.03 0.03 0.02
0.00 0.01 0.02 0.01 0.03 0.04 0.03 0.01 0.00 0.00 0.01 0.01 0.00 0.00 0.00 0.00 0.00 0.00 0.01 0.00 0.00 0.01 0.01 0.02 0.03 0.04 0.04 0.07 0.05 0.03 0.03 0.02 0.02 0.01 0.01 0.01 0.01 0.02 0.02 0.02 0.01 0.02 0.03 0.02
0.01 0.01 0.02 0.02 0.02 0.02 0.02 0.02 0.01 0.01 0.01 0.00 0.00 0.00 0.00 0.00 0.01 0.00 0.00 0.00 0.00 0.01 0.01 0.03 0.02 0.03 0.05 0.06 0.03 0.03 0.02 0.04 0.03 0.01 0.01 0.01 0.02 0.02 0.02 0.01 0.01 0.01 0.01 0.01
0.01 0.01 0.01 0.03 0.04 0.04 0.05 0.05 0.04 0.03 0.01 0.01 0.00 0.00 0.00 0.00 0.01 0.00 0.00 0.00 0.01 0.01 0.02 0.02 0.02 0.03 0.06 0.05 0.03 0.03 0.04 0.05 0.04 0.02 0.01 0.01 0.01 0.01 0.01 0.01 0.01 0.01 0.01 0.01
0.00 0.00 0.01 0.02 0.01 0.01 0.01 0.02 0.03 0.03 0.02 0.02 0.02 0.02 0.01 0.00 0.00 0.00 0.00 0.01 0.01 0.02 0.02 0.02 0.02 0.04 0.04 0.03 0.03 0.03 0.03 0.03 0.02 0.02 0.01 0.01 0.01 0.01 0.01 0.00 0.00 0.00 0.00 0.00
0.00 0.00 0.01 0.01 0.00 0.00 0.00 0.00 0.01 0.02 0.01 0.01 0.03 0.03 0.02 0.01 0.01 0.01 0.01 0.01 0.02 0.01 0.02 0.03 0.03 0.03 0.02 0.02 0.02 0.02 0.01 0.01 0.01 0.01 0.01 0.01 0.00 0.00 0.00 0.00 0.00 0.00 0.00 0.00

GFSNGP_prec_precacc24_171.txt.gz
Total_Precipitation_Accumulation
0.00 0.00 0.00 0.00 0.00 0.00 0.00 0.00 0.03 0.01 0.00 0.00 0.01 0.00 0.00 0.00 0.00 0.00 0.00 0.00 0.00 0.00 0.00 0.00 0.00 0.00 0.00 0.00 0.00 0.00 0.00 0.01 0.01 0.00 0.00 0.00 0.00 0.00 0.00 0.00 0.00 0.01 0.01 0.03
0.00 0.00 0.00 0.00 0.00 0.00 0.00 0.00 0.00 0.01 0.00 0.00 0.00 0.00 0.00 0.00 0.00 0.00 0.00 0.00 0.00 0.00 0.00 0.00 0.00 0.00 0.00 0.00 0.00 0.01 0.01 0.01 0.01 0.01 0.01 0.01 0.01 0.02 0.05 0.06 0.05 0.08 0.09 0.09
0.04 0.00 0.03 0.04 0.00 0.00 0.00 0.00 0.00 0.01 0.00 0.00 0.00 0.00 0.00 0.00 0.00 0.01 0.02 0.01 0.00 0.00 0.00 0.01 0.01 0.01 0.03 0.03 0.04 0.05 0.05 0.03 0.04 0.05 0.06 0.08 0.13 0.20 0.22 0.18 0.17 0.24 0.28 0.29
0.15 0.09 0.19 0.02 0.00 0.00 0.00 0.00 0.00 0.00 0.00 0.00 0.00 0.00 0.00 0.00 0.00 0.00 0.03 0.06 0.07 0.06 0.05 0.06 0.08 0.12 0.13 0.15 0.17 0.21 0.24 0.27 0.35 0.36 0.36 0.38 0.42 0.45 0.40 0.37 0.38 0.40 0.38 0.41
0.31 0.23 0.08 0.01 0.00 0.00 0.00 0.00 0.00 0.00 0.00 0.00 0.00 0.00 0.00 0.00 0.01 0.01 0.01 0.01 0.07 0.16 0.22 0.29 0.33 0.46 0.61 0.64 0.72 0.66 0.65 0.68 0.70 0.69 0.70 0.73 0.76 0.72 0.65 0.60 0.59 0.47 0.42 0.47
0.32 0.27 0.16 0.02 0.00 0.00 0.00 0.01 0.00 0.00 0.00 0.00 0.00 0.01 0.06 0.04 0.06 0.02 0.00 0.00 0.01 0.07 0.17 0.27 0.39 0.46 0.62 0.80 0.91 0.89 0.93 0.97 0.95 0.84 0.77 0.76 0.71 0.64 0.58 0.51 0.44 0.35 0.43 0.39
0.27 0.23 0.07 0.00 0.00 0.01 0.06 0.04 0.00 0.00 0.01 0.01 0.05 0.06 0.10 0.07 0.05 0.01 0.00 0.00 0.00 0.00 0.01 0.06 0.19 0.33 0.44 0.58 0.69 0.82 1.14 1.02 0.87 0.74 0.63 0.55 0.47 0.39 0.37 0.34 0.31 0.34 0.36 0.27
0.26 0.33 0.17 0.01 0.01 0.04 0.04 0.02 0.02 0.01 0.02 0.03 0.02 0.06 0.24 0.20 0.05 0.01 0.00 0.00 0.00 0.00 0.00 0.00 0.01 0.07 0.16 0.35 0.59 0.87 1.06 0.89 0.58 0.48 0.42 0.38 0.32 0.34 0.29 0.26 0.26 0.28 0.26 0.21
0.01 0.03 0.01 0.01 0.02 0.01 0.01 0.01 0.00 0.01 0.01 0.06 0.17 0.09 0.06 0.02 0.01 0.00 0.00 0.00 0.00 0.00 0.00 0.00 0.00 0.01 0.04 0.12 0.26 0.56 0.70 0.58 0.45 0.39 0.33 0.27 0.26 0.28 0.28 0.25 0.23 0.24 0.20 0.17
0.05 0.00 0.00 0.00 0.00 0.00 0.00 0.00 0.00 0.00 0.00 0.02 0.10 0.11 0.03 0.02 0.01 0.01 0.00 0.00 0.00 0.00 0.00 0.00 0.00 0.00 0.01 0.05 0.19 0.32 0.38 0.43 0.40 0.35 0.35 0.32 0.24 0.21 0.20 0.20 0.18 0.17 0.16 0.15
0.02 0.00 0.00 0.00 0.00 0.00 0.00 0.00 0.00 0.00 0.00 0.02 0.03 0.03 0.02 0.02 0.01 0.00 0.00 0.00 0.00 0.00 0.00 0.00 0.00 0.00 0.03 0.09 0.19 0.28 0.38 0.38 0.37 0.35 0.28 0.24 0.23 0.17 0.14 0.14 0.10 0.09 0.09 0.09
0.01 0.00 0.03 0.01 0.00 0.01 0.02 0.01 0.00 0.00 0.01 0.02 0.03 0.08 0.07 0.03 0.02 0.01 0.00 0.00 0.00 0.00 0.00 0.00 0.00 0.01 0.03 0.05 0.09 0.14 0.20 0.26 0.27 0.25 0.21 0.17 0.16 0.19 0.19 0.16 0.15 0.12 0.08 0.08
0.00 0.00 0.01 0.00 0.00 0.00 0.00 0.00 0.00 0.02 0.04 0.07 0.19 0.21 0.14 0.16 0.07 0.01 0.01 0.00 0.00 0.00 0.00 0.00 0.01 0.02 0.06 0.10 0.11 0.10 0.07 0.10 0.16 0.15 0.12 0.12 0.15 0.15 0.18 0.21 0.18 0.16 0.11 0.08
0.03 0.02 0.01 0.00 0.00 0.01 0.01 0.01 0.02 0.02 0.03 0.04 0.10 0.12 0.11 0.06 0.01 0.00 0.01 0.01 0.00 0.00 0.01 0.01 0.02 0.04 0.09 0.13 0.18 0.20 0.24 0.21 0.16 0.14 0.14 0.16 0.16 0.15 0.15 0.16 0.18 0.22 0.23 0.14
0.03 0.04 0.01 0.01 0.02 0.02 0.03 0.11 0.20 0.18 0.17 0.20 0.17 0.14 0.03 0.00 0.00 0.00 0.00 0.00 0.00 0.01 0.02 0.05 0.07 0.13 0.15 0.16 0.18 0.20 0.21 0.21 0.18 0.17 0.15 0.12 0.11 0.12 0.12 0.13 0.12 0.12 0.16 0.19
0.01 0.03 0.04 0.03 0.01 0.01 0.00 0.02 0.24 0.34 0.38 0.26 0.18 0.07 0.04 0.03 0.02 0.01 0.01 0.04 0.06 0.09 0.12 0.14 0.16 0.19 0.24 0.27 0.25 0.26 0.23 0.23 0.20 0.18 0.16 0.13 0.11 0.09 0.07 0.06 0.06 0.06 0.04 0.05
0.03 0.07 0.11 0.21 0.16 0.05 0.02 0.04 0.13 0.07 0.18 0.18 0.11 0.05 0.02 0.00 0.00 0.00 0.01 0.02 0.02 0.04 0.06 0.06 0.07 0.09 0.11 0.12 0.10 0.11 0.12 0.15 0.12 0.10 0.10 0.08 0.07 0.05 0.02 0.02 0.02 0.03 0.04 0.04
0.00 0.00 0.04 0.24 0.04 0.03 0.10 0.14 0.08 0.01 0.03 0.06 0.02 0.05 0.12 0.08 0.02 0.01 0.02 0.06 0.11 0.15 0.11 0.04 0.03 0.06 0.07 0.08 0.07 0.07 0.07 0.08 0.08 0.07 0.06 0.05 0.03 0.02 0.01 0.01 0.01 0.01 0.03 0.04
0.00 0.00 0.00 0.04 0.02 0.02 0.04 0.02 0.02 0.01 0.01 0.01 0.00 0.02 0.10 0.13 0.09 0.08 0.07 0.08 0.09 0.08 0.06 0.02 0.04 0.05 0.05 0.06 0.03 0.03 0.03 0.05 0.05 0.05 0.04 0.04 0.03 0.01 0.01 0.01 0.00 0.01 0.03 0.02
0.00 0.00 0.00 0.00 0.01 0.04 0.03 0.01 0.01 0.00 0.00 0.00 0.00 0.00 0.01 0.03 0.05 0.08 0.08 0.06 0.04 0.02 0.01 0.02 0.03 0.03 0.03 0.02 0.01 0.01 0.01 0.02 0.02 0.02 0.03 0.03 0.03 0.02 0.01 0.01 0.02 0.03 0.03 0.01
0.00 0.00 0.00 0.00 0.00 0.00 0.01 0.00 0.00 0.00 0.00 0.00 0.00 0.00 0.00 0.01 0.01 0.01 0.01 0.02 0.03 0.01 0.01 0.03 0.02 0.02 0.01 0.02 0.02 0.02 0.02 0.03 0.02 0.02 0.01 0.02 0.01 0.01 0.02 0.02 0.03 0.03 0.04 0.02
0.00 0.00 0.01 0.01 0.01 0.01 0.00 0.00 0.00 0.00 0.00 0.00 0.01 0.01 0.01 0.01 0.00 0.01 0.01 0.01 0.01 0.02 0.01 0.02 0.02 0.02 0.01 0.02 0.02 0.03 0.03 0.03 0.02 0.02 0.02 0.02 0.01 0.02 0.02 0.02 0.02 0.03 0.03 0.02
0.00 0.01 0.02 0.02 0.03 0.05 0.04 0.01 0.00 0.00 0.01 0.01 0.01 0.01 0.00 0.00 0.00 0.00 0.02 0.01 0.00 0.01 0.01 0.02 0.02 0.02 0.02 0.05 0.03 0.03 0.03 0.03 0.02 0.01 0.01 0.01 0.01 0.02 0.02 0.02 0.01 0.02 0.03 0.02
0.01 0.01 0.02 0.02 0.02 0.03 0.04 0.04 0.02 0.01 0.01 0.00 0.00 0.00 0.00 0.00 0.01 0.00 0.00 0.00 0.01 0.02 0.02 0.03 0.02 0.02 0.04 0.05 0.03 0.03 0.02 0.04 0.03 0.01 0.01 0.01 0.02 0.02 0.02 0.01 0.01 0.01 0.01 0.01
0.01 0.01 0.01 0.03 0.04 0.04 0.05 0.05 0.04 0.03 0.02 0.01 0.00 0.00 0.00 0.00 0.01 0.00 0.00 0.00 0.01 0.02 0.02 0.02 0.02 0.03 0.05 0.05 0.03 0.03 0.04 0.05 0.04 0.02 0.01 0.01 0.01 0.01 0.01 0.01 0.01 0.01 0.01 0.01
0.00 0.00 0.01 0.02 0.01 0.01 0.01 0.02 0.03 0.03 0.02 0.02 0.02 0.01 0.00 0.00 0.00 0.00 0.00 0.01 0.01 0.02 0.02 0.02 0.02 0.04 0.04 0.04 0.03 0.03 0.03 0.03 0.02 0.02 0.01 0.01 0.01 0.01 0.01 0.00 0.00 0.00 0.00 0.00
0.00 0.00 0.01 0.01 0.00 0.00 0.00 0.00 0.01 0.02 0.01 0.01 0.03 0.02 0.01 0.01 0.01 0.01 0.01 0.01 0.02 0.02 0.03 0.04 0.03 0.03 0.02 0.02 0.03 0.02 0.01 0.01 0.01 0.01 0.01 0.01 0.00 0.00 0.00 0.00 0.00 0.00 0.01 0.00

GFSNGP_prec_precacc24_174.txt.gz
Total_Precipitation_Accumulation
0.00 0.00 0.00 0.00 0.00 0.00 0.00 0.00 0.03 0.01 0.00 0.00 0.01 0.00 0.00 0.00 0.00 0.00 0.00 0.00 0.00 0.00 0.00 0.00 0.00 0.00 0.00 0.00 0.00 0.00 0.00 0.00 0.01 0.00 0.00 0.00 0.00 0.00 0.00 0.00 0.00 0.01 0.01 0.03
0.00 0.00 0.00 0.00 0.00 0.00 0.00 0.00 0.00 0.00 0.00 0.00 0.00 0.00 0.00 0.00 0.00 0.00 0.00 0.00 0.00 0.00 0.00 0.00 0.00 0.00 0.00 0.00 0.00 0.00 0.00 0.00 0.00 0.01 0.01 0.01 0.01 0.02 0.05 0.06 0.05 0.08 0.09 0.09
0.06 0.01 0.02 0.04 0.00 0.00 0.00 0.00 0.00 0.01 0.00 0.00 0.00 0.00 0.00 0.00 0.00 0.00 0.00 0.00 0.00 0.00 0.00 0.00 0.00 0.00 0.00 0.00 0.00 0.00 0.01 0.01 0.03 0.05 0.06 0.08 0.13 0.20 0.22 0.18 0.17 0.24 0.28 0.29
0.18 0.12 0.21 0.04 0.00 0.00 0.00 0.00 0.00 0.00 0.00 0.00 0.00 0.00 0.00 0.00 0.00 0.00 0.00 0.00 0.00 0.00 0.01 0.03 0.03 0.02 0.02 0.03 0.03 0.03 0.07 0.15 0.26 0.29 0.31 0.34 0.40 0.45 0.40 0.37 0.38 0.40 0.38 0.41
0.39 0.30 0.09 0.01 0.00 0.00 0.00 0.00 0.00 0.00 0.00 0.00 0.00 0.00 0.00 0.00 0.01 0.01 0.01 0.00 0.00 0.00 0.02 0.09 0.14 0.18 0.21 0.30 0.33 0.38 0.44 0.50 0.54 0.56 0.63 0.70 0.76 0.72 0.65 0.60 0.59 0.47 0.43 0.47
0.38 0.32 0.18 0.02 0.00 0.00 0.00 0.01 0.00 0.00 0.00 0.00 0.00 0.01 0.06 0.04 0.06 0.02 0.00 0.00 0.00 0.00 0.02 0.04 0.10 0.20 0.31 0.44 0.56 0.62 0.67 0.73 0.76 0.76 0.74 0.75 0.71 0.64 0.58 0.51 0.44 0.35 0.43 0.39
0.29 0.26 0.07 0.00 0.00 0.01 0.05 0.04 0.00 0.00 0.01 0.01 0.05 0.06 0.10 0.07 0.05 0.01 0.00 0.00 0.00 0.00 0.00 0.00 0.02 0.10 0.22 0.37 0.46 0.52 0.64 0.74 0.71 0.66 0.60 0.54 0.47 0.39 0.37 0.34 0.31 0.34 0.36 0.27
0.21 0.27 0.13 0.00 0.01 0.04 0.04 0.02 0.02 0.01 0.02 0.03 0.02 0.06 0.24 0.20 0.05 0.01 0.00 0.00 0.00 0.00 0.00 0.00 0.00 0.02 0.09 0.25 0.41 0.53 0.64 0.66 0.49 0.44 0.40 0.37 0.32 0.34 0.29 0.26 0.26 0.28 0.26 0.21
0.02 0.03 0.00 0.00 0.00 0.00 0.01 0.01 0.00 0.01 0.01 0.06 0.17 0.09 0.06 0.02 0.01 0.00 0.00 0.00 0.00 0.00 0.00 0.00 0.00 0.00 0.02 0.08 0.17 0.37 0.46 0.42 0.37 0.36 0.33 0.27 0.27 0.28 0.28 0.25 0.23 0.24 0.20 0.17
0.04 0.00 0.00 0.00 0.00 0.00 0.00 0.00 0.00 0.00 0.00 0.02 0.10 0.11 0.03 0.02 0.01 0.01 0.00 0.00 0.00 0.00 0.00 0.00 0.00 0.00 0.00 0.04 0.10 0.16 0.23 0.31 0.34 0.33 0.35 0.32 0.25 0.21 0.20 0.20 0.18 0.17 0.16 0.15
0.01 0.00 0.00 0.00 0.00 0.00 0.00 0.00 0.00 0.00 0.00 0.02 0.03 0.03 0.02 0.02 0.01 0.00 0.00 0.00 0.00 0.00 0.00 0.00 0.00 0.00 0.00 0.03 0.07 0.13 0.19 0.27 0.33 0.34 0.28 0.25 0.23 0.17 0.14 0.15 0.11 0.09 0.10 0.09
0.00 0.00 0.00 0.00 0.00 0.01 0.01 0.00 0.00 0.00 0.01 0.02 0.03 0.08 0.07 0.03 0.02 0.01 0.00 0.00 0.00 0.00 0.00 0.00 0.00 0.01 0.02 0.03 0.03 0.09 0.15 0.22 0.25 0.25 0.21 0.17 0.16 0.20 0.19 0.16 0.15 0.12 0.08 0.08
0.00 0.00 0.00 0.00 0.00 0.00 0.00 0.00 0.00 0.02 0.04 0.07 0.19 0.21 0.14 0.16 0.07 0.01 0.01 0.00 0.00 0.00 0.00 0.00 0.00 0.02 0.05 0.07 0.06 0.06 0.05 0.08 0.16 0.16 0.13 0.12 0.15 0.15 0.18 0.21 0.19 0.16 0.11 0.08
0.00 0.00 0.00 0.00 0.00 0.01 0.01 0.01 0.02 0.02 0.03 0.04 0.10 0.12 0.11 0.06 0.01 0.00 0.00 0.01 0.00 0.00 0.00 0.01 0.01 0.04 0.07 0.11 0.15 0.16 0.21 0.20 0.16 0.14 0.14 0.16 0.16 0.16 0.15 0.16 0.19 0.23 0.23 0.14
0.00 0.00 0.01 0.01 0.02 0.02 0.03 0.11 0.20 0.18 0.17 0.20 0.17 0.14 0.03 0.00 0.00 0.00 0.00 0.00 0.00 0.00 0.02 0.04 0.07 0.12 0.14 0.16 0.17 0.18 0.19 0.20 0.17 0.17 0.15 0.12 0.11 0.12 0.12 0.13 0.13 0.12 0.16 0.18
0.01 0.03 0.04 0.03 0.01 0.01 0.00 0.02 0.24 0.34 0.38 0.26 0.18 0.06 0.01 0.00 0.01 0.01 0.01 0.03 0.06 0.09 0.12 0.13 0.15 0.18 0.24 0.25 0.23 0.23 0.21 0.21 0.20 0.17 0.16 0.13 0.11 0.09 0.07 0.06 0.06 0.06 0.05 0.04
0.03 0.07 0.11 0.21 0.16 0.05 0.02 0.04 0.13 0.07 0.18 0.18 0.10 0.04 0.01 0.00 0.00 0.00 0.00 0.01 0.02 0.03 0.05 0.06 0.08 0.09 0.11 0.10 0.09 0.10 0.11 0.13 0.11 0.10 0.11 0.08 0.07 0.05 0.03 0.02 0.02 0.03 0.04 0.04
0.00 0.00 0.04 0.24 0.04 0.03 0.10 0.14 0.08 0.01 0.03 0.06 0.02 0.05 0.12 0.08 0.02 0.01 0.01 0.05 0.11 0.14 0.12 0.08 0.07 0.08 0.07 0.07 0.05 0.06 0.06 0.07 0.07 0.07 0.06 0.05 0.03 0.02 0.01 0.01 0.01 0.01 0.03 0.04
0.00 0.00 0.00 0.04 0.02 0.02 0.04 0.02 0.02 0.01 0.01 0.01 0.00 0.02 0.10 0.14 0.10 0.10 0.08 0.07 0.08 0.09 0.09 0.05 0.05 0.06 0.05 0.06 0.03 0.03 0.03 0.04 0.04 0.05 0.04 0.04 0.03 0.01 0.01 0.01 0.00 0.01 0.03 0.02
0.00 0.00 0.00 0.00 0.01 0.04 0.03 0.01 0.01 0.00 0.00 0.00 0.00 0.00 0.01 0.03 0.05 0.09 0.10 0.08 0.05 0.02 0.01 0.02 0.03 0.03 0.03 0.02 0.01 0.01 0.01 0.02 0.02 0.03 0.03 0.03 0.03 0.02 0.01 0.01 0.02 0.03 0.03 0.02
0.00 0.00 0.01 0.00 0.00 0.00 0.01 0.00 0.00 0.00 0.00 0.00 0.00 0.00 0.00 0.01 0.01 0.01 0.02 0.02 0.03 0.01 0.01 0.02 0.02 0.02 0.01 0.01 0.01 0.02 0.02 0.02 0.02 0.02 0.02 0.02 0.02 0.01 0.02 0.02 0.03 0.03 0.04 0.02
0.00 0.00 0.02 0.01 0.01 0.01 0.00 0.00 0.00 0.00 0.00 0.00 0.01 0.01 0.01 0.01 0.00 0.01 0.01 0.01 0.01 0.02 0.01 0.02 0.02 0.02 0.01 0.01 0.01 0.02 0.02 0.02 0.02 0.02 0.02 0.02 0.01 0.02 0.02 0.02 0.02 0.03 0.03 0.02
0.00 0.01 0.02 0.02 0.03 0.05 0.05 0.03 0.01 0.00 0.01 0.01 0.01 0.01 0.00 0.00 0.00 0.00 0.01 0.01 0.00 0.01 0.01 0.02 0.02 0.02 0.01 0.03 0.02 0.02 0.02 0.02 0.02 0.01 0.01 0.02 0.01 0.02 0.02 0.02 0.01 0.02 0.03 0.02
0.01 0.01 0.02 0.03 0.03 0.03 0.05 0.06 0.04 0.02 0.01 0.00 0.01 0.01 0.00 0.00 0.01 0.00 0.00 0.00 0.01 0.02 0.02 0.03 0.02 0.02 0.03 0.06 0.03 0.03 0.03 0.03 0.03 0.02 0.01 0.02 0.02 0.02 0.02 0.01 0.01 0.02 0.02 0.01
0.01 0.01 0.02 0.04 0.04 0.04 0.05 0.05 0.05 0.04 0.02 0.01 0.01 0.00 0.00 0.00 0.01 0.00 0.00 0.00 0.01 0.02 0.03 0.03 0.02 0.02 0.06 0.06 0.04 0.03 0.04 0.05 0.04 0.03 0.01 0.01 0.01 0.01 0.02 0.01 0.01 0.01 0.01 0.01
0.00 0.00 0.01 0.02 0.01 0.01 0.01 0.02 0.03 0.03 0.03 0.03 0.03 0.02 0.01 0.00 0.00 0.00 0.00 0.01 0.01 0.02 0.03 0.03 0.02 0.04 0.05 0.04 0.03 0.03 0.03 0.03 0.03 0.02 0.01 0.01 0.01 0.02 0.01 0.01 0.00 0.00 0.00 0.00
0.00 0.00 0.01 0.01 0.00 0.00 0.00 0.00 0.01 0.02 0.02 0.02 0.03 0.03 0.02 0.01 0.01 0.01 0.01 0.02 0.03 0.03 0.04 0.05 0.04 0.04 0.03 0.03 0.03 0.03 0.01 0.01 0.01 0.01 0.01 0.01 0.00 0.00 0.00 0.00 0.00 0.00 0.01 0.01

GFSNGP_prec_precacc24_177.txt.gz
Total_Precipitation_Accumulation
0.00 0.00 0.00 0.00 0.00 0.00 0.00 0.00 0.02 0.01 0.00 0.00 0.01 0.00 0.00 0.00 0.00 0.00 0.00 0.00 0.00 0.00 0.00 0.00 0.00 0.00 0.00 0.00 0.00 0.00 0.00 0.00 0.00 0.00 0.00 0.00 0.00 0.00 0.00 0.00 0.00 0.01 0.01 0.03
0.00 0.00 0.00 0.00 0.00 0.00 0.00 0.00 0.00 0.00 0.00 0.00 0.00 0.00 0.00 0.00 0.00 0.00 0.00 0.00 0.00 0.00 0.00 0.00 0.00 0.00 0.00 0.00 0.00 0.00 0.00 0.00 0.00 0.00 0.00 0.00 0.00 0.02 0.04 0.05 0.05 0.07 0.09 0.09
0.05 0.02 0.03 0.04 0.00 0.00 0.00 0.00 0.00 0.00 0.00 0.00 0.00 0.00 0.00 0.00 0.00 0.00 0.00 0.00 0.00 0.00 0.00 0.00 0.00 0.00 0.00 0.00 0.00 0.00 0.00 0.01 0.01 0.02 0.02 0.03 0.08 0.16 0.19 0.17 0.17 0.24 0.28 0.29
0.20 0.14 0.25 0.04 0.00 0.00 0.00 0.00 0.00 0.00 0.00 0.00 0.00 0.00 0.00 0.00 0.00 0.00 0.00 0.00 0.00 0.00 0.00 0.00 0.00 0.00 0.00 0.01 0.02 0.02 0.03 0.07 0.11 0.14 0.16 0.20 0.28 0.36 0.35 0.34 0.37 0.41 0.38 0.41
0.42 0.34 0.11 0.01 0.00 0.00 0.00 0.00 0.00 0.00 0.00 0.00 0.00 0.00 0.00 0.00 0.01 0.01 0.01 0.00 0.00 0.00 0.00 0.00 0.00 0.01 0.04 0.08 0.12 0.13 0.17 0.20 0.22 0.26 0.34 0.45 0.56 0.59 0.58 0.56 0.58 0.48 0.43 0.47
0.42 0.36 0.21 0.02 0.00 0.00 0.00 0.00 0.00 0.00 0.00 0.00 0.00 0.00 0.04 0.04 0.06 0.02 0.00 0.00 0.00 0.00 0.00 0.00 0.00 0.00 0.02 0.10 0.17 0.18 0.24 0.32 0.40 0.46 0.51 0.58 0.60 0.57 0.55 0.50 0.44 0.35 0.43 0.39
0.34 0.28 0.07 0.00 0.00 0.00 0.02 0.03 0.00 0.00 0.01 0.01 0.05 0.06 0.10 0.07 0.05 0.01 0.00 0.00 0.00 0.00 0.00 0.00 0.00 0.00 0.01 0.06 0.13 0.15 0.19 0.30 0.40 0.45 0.45 0.44 0.42 0.37 0.36 0.34 0.31 0.34 0.36 0.27
0.21 0.32 0.18 0.00 0.00 0.01 0.03 0.02 0.02 0.00 0.02 0.03 0.02 0.06 0.24 0.20 0.05 0.01 0.00 0.00 0.00 0.00 0.00 0.00 0.00 0.00 0.00 0.02 0.07 0.14 0.18 0.25 0.26 0.28 0.30 0.29 0.28 0.33 0.29 0.26 0.26 0.28 0.26 0.20
0.02 0.03 0.00 0.00 0.00 0.00 0.01 0.01 0.00 0.00 0.00 0.06 0.17 0.09 0.06 0.02 0.01 0.00 0.00 0.00 0.00 0.00 0.00 0.00 0.00 0.00 0.00 0.01 0.02 0.08 0.16 0.15 0.17 0.21 0.22 0.23 0.25 0.27 0.28 0.25 0.24 0.24 0.20 0.17
0.02 0.00 0.00 0.00 0.00 0.00 0.00 0.00 0.00 0.00 0.00 0.02 0.10 0.11 0.03 0.02 0.01 0.00 0.00 0.00 0.00 0.00 0.00 0.00 0.00 0.00 0.00 0.01 0.02 0.05 0.08 0.12 0.17 0.19 0.24 0.28 0.24 0.21 0.20 0.20 0.19 0.17 0.16 0.15
0.00 0.00 0.00 0.00 0.00 0.00 0.00 0.00 0.00 0.00 0.00 0.02 0.03 0.03 0.02 0.02 0.01 0.00 0.00 0.00 0.00 0.00 0.00 0.00 0.00 0.00 0.00 0.01 0.01 0.04 0.07 0.14 0.16 0.21 0.23 0.23 0.23 0.17 0.14 0.15 0.11 0.09 0.10 0.09
0.00 0.00 0.00 0.00 0.00 0.00 0.00 0.00 0.00 0.00 0.01 0.02 0.03 0.08 0.07 0.03 0.02 0.01 0.00 0.00 0.00 0.00 0.00 0.00 0.00 0.00 0.01 0.01 0.01 0.02 0.05 0.10 0.13 0.17 0.20 0.17 0.16 0.20 0.19 0.16 0.15 0.12 0.08 0.08
0.00 0.00 0.00 0.00 0.00 0.00 0.00 0.00 0.00 0.02 0.04 0.07 0.19 0.21 0.14 0.16 0.07 0.01 0.01 0.00 0.00 0.00 0.00 0.00 0.00 0.01 0.03 0.05 0.05 0.04 0.04 0.05 0.10 0.12 0.12 0.13 0.15 0.15 0.18 0.21 0.19 0.16 0.11 0.08
0.00 0.00 0.00 0.00 0.00 0.00 0.01 0.00 0.01 0.02 0.03 0.04 0.10 0.12 0.11 0.06 0.01 0.00 0.00 0.01 0.00 0.00 0.00 0.00 0.01 0.03 0.06 0.09 0.12 0.13 0.18 0.16 0.11 0.13 0.14 0.17 0.17 0.16 0.16 0.16 0.19 0.23 0.23 0.14
0.00 0.00 0.00 0.00 0.00 0.01 0.03 0.11 0.20 0.18 0.17 0.20 0.17 0.14 0.03 0.00 0.00 0.00 0.00 0.00 0.00 0.00 0.01 0.02 0.03 0.07 0.10 0.12 0.14 0.14 0.14 0.14 0.12 0.15 0.14 0.13 0.12 0.13 0.13 0.13 0.13 0.13 0.16 0.18
0.01 0.02 0.02 0.02 0.01 0.01 0.00 0.02 0.24 0.34 0.38 0.26 0.18 0.06 0.01 0.00 0.00 0.00 0.00 0.00 0.01 0.03 0.07 0.08 0.10 0.14 0.18 0.20 0.18 0.19 0.18 0.19 0.18 0.16 0.15 0.13 0.11 0.09 0.07 0.06 0.06 0.06 0.05 0.04
0.02 0.07 0.10 0.21 0.16 0.05 0.02 0.04 0.13 0.07 0.18 0.18 0.10 0.04 0.01 0.00 0.00 0.00 0.00 0.01 0.01 0.03 0.04 0.04 0.05 0.06 0.07 0.06 0.06 0.09 0.11 0.12 0.10 0.09 0.09 0.08 0.07 0.05 0.03 0.02 0.03 0.04 0.04 0.03
0.00 0.00 0.04 0.24 0.04 0.03 0.10 0.14 0.08 0.01 0.03 0.06 0.02 0.05 0.12 0.08 0.02 0.01 0.01 0.04 0.10 0.14 0.11 0.08 0.06 0.07 0.06 0.06 0.05 0.05 0.05 0.05 0.05 0.05 0.05 0.04 0.03 0.02 0.01 0.01 0.01 0.01 0.04 0.04
0.00 0.00 0.00 0.04 0.01 0.02 0.04 0.02 0.02 0.01 0.01 0.01 0.00 0.02 0.10 0.14 0.10 0.10 0.08 0.07 0.08 0.08 0.08 0.05 0.05 0.05 0.05 0.05 0.02 0.02 0.03 0.03 0.04 0.04 0.03 0.03 0.02 0.01 0.01 0.01 0.01 0.02 0.03 0.02
0.00 0.00 0.00 0.00 0.01 0.04 0.03 0.01 0.01 0.00 0.00 0.00 0.00 0.00 0.01 0.03 0.05 0.09 0.10 0.08 0.05 0.01 0.01 0.02 0.02 0.03 0.02 0.02 0.01 0.01 0.01 0.01 0.01 0.02 0.02 0.02 0.03 0.02 0.01 0.01 0.01 0.03 0.03 0.02
0.00 0.00 0.01 0.00 0.00 0.00 0.01 0.00 0.00 0.00 0.00 0.00 0.00 0.00 0.00 0.01 0.01 0.01 0.01 0.02 0.03 0.01 0.01 0.02 0.02 0.02 0.01 0.01 0.01 0.02 0.02 0.02 0.01 0.02 0.01 0.02 0.01 0.01 0.01 0.02 0.03 0.03 0.04 0.02
0.00 0.01 0.02 0.01 0.01 0.01 0.00 0.00 0.00 0.00 0.00 0.00 0.01 0.01 0.01 0.01 0.00 0.01 0.00 0.00 0.01 0.01 0.01 0.02 0.02 0.02 0.01 0.01 0.01 0.02 0.02 0.02 0.02 0.02 0.02 0.01 0.01 0.01 0.02 0.01 0.02 0.02 0.03 0.01
0.00 0.01 0.02 0.02 0.03 0.05 0.05 0.03 0.01 0.00 0.01 0.01 0.01 0.01 0.00 0.00 0.00 0.00 0.01 0.01 0.00 0.01 0.02 0.02 0.02 0.02 0.01 0.03 0.02 0.02 0.02 0.02 0.01 0.01 0.01 0.02 0.01 0.02 0.02 0.01 0.01 0.01 0.02 0.01
0.01 0.01 0.02 0.03 0.03 0.03 0.05 0.06 0.04 0.03 0.01 0.00 0.01 0.01 0.00 0.00 0.01 0.00 0.00 0.00 0.01 0.02 0.02 0.03 0.02 0.02 0.02 0.05 0.03 0.02 0.02 0.02 0.02 0.01 0.01 0.02 0.02 0.02 0.02 0.01 0.01 0.01 0.01 0.01
0.01 0.01 0.02 0.04 0.04 0.04 0.05 0.05 0.05 0.04 0.02 0.02 0.01 0.01 0.00 0.00 0.01 0.00 0.00 0.01 0.01 0.02 0.03 0.02 0.01 0.02 0.05 0.05 0.04 0.03 0.03 0.03 0.03 0.02 0.01 0.01 0.01 0.01 0.02 0.01 0.01 0.01 0.01 0.01
0.00 0.00 0.01 0.02 0.01 0.01 0.01 0.02 0.03 0.03 0.03 0.03 0.03 0.02 0.01 0.00 0.00 0.00 0.01 0.01 0.01 0.03 0.04 0.03 0.03 0.03 0.05 0.04 0.04 0.04 0.03 0.03 0.03 0.02 0.01 0.01 0.01 0.01 0.01 0.00 0.00 0.00 0.01 0.01
0.00 0.01 0.01 0.02 0.01 0.00 0.00 0.00 0.01 0.02 0.02 0.02 0.04 0.04 0.02 0.01 0.02 0.01 0.01 0.02 0.03 0.04 0.05 0.05 0.04 0.03 0.03 0.03 0.04 0.03 0.02 0.01 0.01 0.01 0.01 0.01 0.01 0.01 0.00 0.00 0.00 0.00 0.01 0.01

GFSNGP_prec_precacc24_183.txt.gz
Total_Precipitation_Accumulation
0.00 0.00 0.00 0.00 0.00 0.00 0.00 0.00 0.02 0.00 0.00 0.00 0.02 0.01 0.00 0.00 0.00 0.00 0.00 0.00 0.00 0.00 0.00 0.00 0.00 0.00 0.00 0.00 0.00 0.00 0.00 0.00 0.00 0.00 0.00 0.01 0.00 0.00 0.00 0.00 0.00 0.00 0.01 0.01
0.02 0.00 0.01 0.00 0.00 0.00 0.00 0.00 0.00 0.00 0.00 0.00 0.00 0.00 0.00 0.00 0.00 0.00 0.00 0.00 0.00 0.00 0.00 0.00 0.00 0.00 0.00 0.00 0.00 0.00 0.00 0.00 0.00 0.01 0.02 0.01 0.00 0.01 0.02 0.03 0.04 0.06 0.06 0.07
0.11 0.03 0.12 0.16 0.00 0.00 0.00 0.00 0.00 0.00 0.00 0.00 0.00 0.00 0.00 0.01 0.00 0.00 0.00 0.00 0.00 0.00 0.00 0.00 0.00 0.00 0.00 0.00 0.00 0.00 0.00 0.00 0.00 0.00 0.01 0.01 0.02 0.04 0.07 0.09 0.09 0.14 0.19 0.20
0.28 0.26 0.58 0.21 0.00 0.00 0.00 0.00 0.00 0.00 0.00 0.00 0.00 0.00 0.00 0.00 0.00 0.00 0.00 0.00 0.00 0.00 0.00 0.00 0.00 0.00 0.00 0.00 0.00 0.00 0.00 0.00 0.00 0.00 0.01 0.03 0.05 0.08 0.10 0.14 0.17 0.21 0.24 0.27
0.61 0.48 0.22 0.01 0.00 0.00 0.00 0.00 0.00 0.00 0.00 0.00 0.00 0.00 0.00 0.00 0.00 0.00 0.00 0.00 0.00 0.00 0.00 0.00 0.00 0.00 0.00 0.00 0.00 0.00 0.00 0.00 0.00 0.00 0.02 0.07 0.13 0.16 0.18 0.21 0.22 0.19 0.25 0.29
0.60 0.49 0.27 0.02 0.00 0.00 0.00 0.00 0.00 0.00 0.00 0.00 0.00 0.00 0.00 0.00 0.00 0.00 0.00 0.00 0.00 0.00 0.00 0.00 0.00 0.00 0.00 0.01 0.01 0.01 0.01 0.01 0.01 0.01 0.02 0.05 0.10 0.13 0.15 0.14 0.12 0.16 0.24 0.25
0.56 0.34 0.08 0.00 0.00 0.00 0.03 0.02 0.00 0.00 0.00 0.00 0.00 0.00 0.00 0.00 0.00 0.00 0.00 0.00 0.00 0.00 0.00 0.00 0.00 0.00 0.00 0.01 0.01 0.01 0.01 0.01 0.01 0.01 0.01 0.02 0.04 0.06 0.06 0.08 0.12 0.19 0.20 0.19
0.47 0.43 0.19 0.00 0.00 0.01 0.00 0.00 0.00 0.00 0.00 0.00 0.00 0.00 0.00 0.00 0.00 0.00 0.00 0.00 0.00 0.00 0.00 0.00 0.00 0.00 0.00 0.00 0.01 0.01 0.01 0.00 0.00 0.01 0.01 0.02 0.04 0.07 0.07 0.08 0.10 0.13 0.14 0.15
0.06 0.07 0.00 0.00 0.00 0.00 0.00 0.00 0.00 0.00 0.00 0.00 0.00 0.00 0.00 0.00 0.00 0.00 0.00 0.00 0.00 0.00 0.00 0.00 0.00 0.00 0.00 0.00 0.00 0.00 0.00 0.01 0.00 0.01 0.02 0.03 0.03 0.05 0.07 0.09 0.11 0.13 0.13 0.14
0.01 0.00 0.00 0.00 0.00 0.00 0.00 0.00 0.00 0.00 0.00 0.00 0.00 0.00 0.01 0.01 0.01 0.00 0.00 0.00 0.00 0.00 0.00 0.00 0.00 0.00 0.00 0.00 0.00 0.00 0.00 0.01 0.02 0.03 0.04 0.05 0.05 0.05 0.05 0.08 0.10 0.12 0.13 0.15
0.01 0.00 0.00 0.00 0.00 0.00 0.00 0.00 0.00 0.00 0.00 0.00 0.00 0.00 0.00 0.01 0.01 0.00 0.00 0.00 0.00 0.00 0.00 0.00 0.00 0.00 0.00 0.00 0.00 0.00 0.01 0.02 0.03 0.04 0.05 0.05 0.06 0.05 0.06 0.09 0.08 0.08 0.09 0.09
0.01 0.00 0.00 0.00 0.00 0.00 0.00 0.00 0.00 0.00 0.00 0.00 0.00 0.00 0.00 0.00 0.01 0.01 0.00 0.00 0.00 0.00 0.00 0.00 0.00 0.00 0.00 0.00 0.00 0.01 0.02 0.03 0.04 0.05 0.06 0.05 0.06 0.10 0.13 0.13 0.14 0.12 0.08 0.08
0.00 0.00 0.00 0.00 0.00 0.00 0.00 0.00 0.00 0.00 0.00 0.00 0.00 0.00 0.00 0.01 0.04 0.01 0.01 0.00 0.00 0.00 0.00 0.00 0.00 0.00 0.00 0.00 0.01 0.02 0.02 0.03 0.05 0.06 0.06 0.07 0.09 0.09 0.13 0.19 0.18 0.17 0.11 0.08
0.00 0.00 0.00 0.00 0.00 0.00 0.00 0.00 0.00 0.00 0.00 0.00 0.00 0.00 0.01 0.04 0.01 0.00 0.00 0.01 0.00 0.00 0.00 0.00 0.00 0.00 0.01 0.01 0.01 0.02 0.06 0.10 0.04 0.04 0.06 0.11 0.11 0.11 0.11 0.16 0.19 0.22 0.22 0.14
0.00 0.00 0.00 0.00 0.00 0.00 0.00 0.00 0.00 0.00 0.00 0.00 0.00 0.05 0.02 0.00 0.00 0.00 0.00 0.00 0.00 0.00 0.00 0.01 0.01 0.02 0.02 0.02 0.01 0.02 0.03 0.04 0.04 0.05 0.07 0.08 0.10 0.11 0.11 0.13 0.14 0.13 0.16 0.18
0.00 0.00 0.00 0.00 0.00 0.00 0.00 0.00 0.00 0.00 0.07 0.05 0.05 0.05 0.01 0.00 0.00 0.00 0.00 0.00 0.00 0.02 0.02 0.02 0.03 0.03 0.03 0.02 0.02 0.03 0.04 0.08 0.10 0.09 0.10 0.10 0.10 0.10 0.07 0.06 0.07 0.06 0.05 0.04
0.00 0.00 0.00 0.01 0.01 0.00 0.01 0.01 0.01 0.04 0.11 0.13 0.10 0.04 0.01 0.00 0.00 0.00 0.00 0.01 0.01 0.03 0.04 0.04 0.03 0.04 0.04 0.03 0.03 0.04 0.04 0.06 0.07 0.08 0.08 0.06 0.06 0.05 0.03 0.03 0.03 0.04 0.05 0.03
0.00 0.00 0.01 0.01 0.01 0.03 0.10 0.12 0.06 0.01 0.03 0.06 0.02 0.05 0.12 0.08 0.02 0.00 0.01 0.04 0.10 0.13 0.11 0.07 0.06 0.05 0.05 0.04 0.03 0.02 0.02 0.03 0.03 0.03 0.02 0.03 0.03 0.02 0.01 0.01 0.01 0.02 0.04 0.04
0.00 0.00 0.00 0.00 0.00 0.01 0.02 0.01 0.01 0.01 0.01 0.01 0.00 0.02 0.10 0.14 0.10 0.10 0.07 0.07 0.08 0.08 0.07 0.04 0.05 0.04 0.02 0.02 0.01 0.01 0.01 0.01 0.02 0.02 0.01 0.02 0.01 0.01 0.01 0.01 0.01 0.02 0.01 0.01
0.00 0.00 0.00 0.00 0.00 0.03 0.03 0.01 0.01 0.00 0.00 0.00 0.00 0.00 0.01 0.03 0.05 0.09 0.10 0.07 0.04 0.01 0.01 0.01 0.02 0.02 0.02 0.01 0.01 0.01 0.01 0.01 0.01 0.02 0.01 0.02 0.02 0.02 0.01 0.01 0.01 0.02 0.02 0.01
0.00 0.00 0.01 0.00 0.00 0.00 0.01 0.00 0.00 0.00 0.00 0.00 0.00 0.00 0.00 0.01 0.01 0.01 0.02 0.02 0.02 0.00 0.01 0.02 0.02 0.02 0.01 0.01 0.01 0.02 0.01 0.02 0.01 0.01 0.02 0.02 0.02 0.01 0.01 0.02 0.02 0.02 0.02 0.02
0.00 0.01 0.02 0.01 0.01 0.01 0.00 0.00 0.00 0.00 0.00 0.00 0.01 0.01 0.01 0.01 0.00 0.01 0.00 0.00 0.01 0.01 0.01 0.02 0.02 0.02 0.01 0.01 0.02 0.01 0.02 0.02 0.02 0.01 0.01 0.01 0.01 0.01 0.01 0.01 0.01 0.01 0.01 0.01
0.00 0.01 0.02 0.02 0.03 0.05 0.04 0.03 0.01 0.00 0.01 0.01 0.01 0.01 0.00 0.00 0.00 0.00 0.01 0.01 0.00 0.01 0.01 0.02 0.02 0.02 0.01 0.02 0.03 0.01 0.02 0.01 0.01 0.00 0.01 0.01 0.01 0.00 0.00 0.00 0.01 0.01 0.01 0.01
0.01 0.01 0.02 0.02 0.03 0.03 0.05 0.07 0.05 0.03 0.01 0.00 0.01 0.01 0.00 0.01 0.01 0.00 0.00 0.00 0.00 0.01 0.02 0.02 0.02 0.01 0.01 0.04 0.03 0.01 0.01 0.01 0.01 0.01 0.01 0.01 0.00 0.00 0.00 0.00 0.01 0.00 0.01 0.01
0.01 0.01 0.01 0.03 0.04 0.04 0.05 0.06 0.05 0.05 0.02 0.02 0.01 0.01 0.00 0.00 0.01 0.00 0.00 0.00 0.01 0.02 0.04 0.02 0.01 0.00 0.02 0.04 0.02 0.02 0.01 0.01 0.01 0.01 0.01 0.01 0.01 0.01 0.01 0.01 0.00 0.01 0.00 0.01
0.00 0.01 0.01 0.02 0.01 0.01 0.01 0.02 0.04 0.04 0.03 0.03 0.03 0.03 0.01 0.00 0.00 0.00 0.01 0.01 0.01 0.03 0.04 0.03 0.02 0.01 0.03 0.03 0.02 0.02 0.01 0.01 0.02 0.02 0.01 0.01 0.01 0.01 0.01 0.01 0.00 0.00 0.00 0.00
0.00 0.01 0.02 0.02 0.01 0.00 0.00 0.00 0.01 0.02 0.02 0.02 0.03 0.03 0.02 0.01 0.02 0.01 0.02 0.03 0.04 0.04 0.06 0.05 0.03 0.02 0.03 0.03 0.03 0.02 0.02 0.01 0.01 0.01 0.01 0.01 0.01 0.01 0.01 0.00 0.00 0.01 0.01 0.01

GFSNGP_prec_precacc24_186.txt.gz
Total_Precipitation_Accumulation
0.00 0.00 0.00 0.00 0.00 0.00 0.00 0.00 0.01 0.00 0.00 0.00 0.02 0.01 0.00 0.00 0.00 0.00 0.00 0.00 0.00 0.00 0.00 0.00 0.00 0.00 0.00 0.00 0.00 0.00 0.00 0.00 0.00 0.00 0.01 0.02 0.02 0.01 0.00 0.00 0.00 0.01 0.01 0.01
0.02 0.00 0.01 0.00 0.00 0.00 0.00 0.00 0.00 0.00 0.00 0.00 0.00 0.00 0.00 0.00 0.00 0.00 0.00 0.00 0.00 0.00 0.00 0.00 0.00 0.00 0.00 0.00 0.00 0.00 0.00 0.00 0.00 0.01 0.02 0.03 0.02 0.00 0.00 0.01 0.02 0.03 0.03 0.05
0.11 0.03 0.13 0.19 0.01 0.00 0.00 0.00 0.00 0.00 0.00 0.00 0.00 0.00 0.00 0.01 0.00 0.00 0.00 0.00 0.00 0.00 0.00 0.00 0.00 0.00 0.00 0.00 0.00 0.00 0.00 0.00 0.00 0.00 0.00 0.01 0.01 0.02 0.02 0.02 0.02 0.07 0.11 0.13
0.39 0.28 0.66 0.31 0.00 0.00 0.00 0.00 0.00 0.00 0.00 0.00 0.00 0.01 0.01 0.00 0.00 0.00 0.00 0.00 0.00 0.00 0.00 0.00 0.00 0.00 0.00 0.00 0.00 0.00 0.00 0.00 0.00 0.00 0.00 0.00 0.00 0.02 0.02 0.04 0.08 0.11 0.13 0.14
0.91 0.65 0.30 0.02 0.00 0.00 0.00 0.00 0.00 0.00 0.00 0.00 0.00 0.00 0.00 0.00 0.00 0.00 0.00 0.00 0.00 0.00 0.00 0.00 0.00 0.00 0.00 0.00 0.00 0.00 0.00 0.01 0.00 0.01 0.03 0.05 0.06 0.05 0.03 0.05 0.09 0.11 0.12 0.13
0.85 0.66 0.39 0.02 0.00 0.00 0.00 0.00 0.00 0.00 0.00 0.00 0.00 0.00 0.00 0.00 0.00 0.00 0.00 0.00 0.00 0.00 0.00 0.00 0.00 0.00 0.00 0.01 0.01 0.01 0.02 0.01 0.03 0.05 0.07 0.05 0.02 0.02 0.04 0.04 0.05 0.07 0.11 0.11
0.79 0.46 0.11 0.00 0.00 0.00 0.03 0.02 0.00 0.00 0.00 0.00 0.00 0.00 0.00 0.00 0.00 0.00 0.00 0.00 0.00 0.00 0.00 0.00 0.00 0.00 0.01 0.01 0.02 0.01 0.01 0.01 0.01 0.01 0.01 0.00 0.01 0.02 0.02 0.03 0.05 0.08 0.08 0.08
0.74 0.57 0.21 0.00 0.00 0.01 0.00 0.00 0.00 0.00 0.00 0.00 0.00 0.00 0.00 0.00 0.00 0.00 0.00 0.00 0.00 0.00 0.00 0.00 0.00 0.00 0.00 0.00 0.01 0.01 0.01 0.00 0.00 0.00 0.00 0.01 0.01 0.02 0.02 0.03 0.04 0.05 0.06 0.06
0.15 0.13 0.01 0.00 0.00 0.00 0.00 0.00 0.00 0.00 0.00 0.00 0.00 0.00 0.00 0.00 0.00 0.00 0.00 0.00 0.00 0.00 0.00 0.00 0.00 0.00 0.00 0.00 0.00 0.00 0.00 0.00 0.00 0.00 0.01 0.01 0.02 0.02 0.02 0.03 0.05 0.06 0.06 0.07
0.05 0.03 0.01 0.02 0.01 0.00 0.00 0.00 0.00 0.00 0.00 0.00 0.00 0.00 0.00 0.00 0.00 0.00 0.00 0.00 0.00 0.00 0.00 0.00 0.00 0.00 0.00 0.00 0.00 0.00 0.00 0.00 0.01 0.01 0.02 0.02 0.02 0.02 0.02 0.03 0.05 0.05 0.06 0.08
0.02 0.00 0.00 0.00 0.00 0.00 0.00 0.00 0.00 0.00 0.00 0.00 0.00 0.00 0.00 0.00 0.00 0.00 0.00 0.00 0.00 0.00 0.00 0.00 0.00 0.00 0.00 0.00 0.00 0.00 0.00 0.00 0.01 0.02 0.03 0.03 0.03 0.02 0.02 0.04 0.04 0.04 0.06 0.07
0.01 0.00 0.00 0.00 0.00 0.00 0.00 0.00 0.00 0.00 0.00 0.00 0.00 0.00 0.00 0.00 0.00 0.00 0.00 0.00 0.00 0.00 0.00 0.00 0.00 0.00 0.00 0.00 0.00 0.00 0.01 0.01 0.02 0.03 0.03 0.03 0.04 0.06 0.06 0.05 0.08 0.09 0.08 0.08
0.00 0.00 0.00 0.00 0.00 0.00 0.00 0.00 0.00 0.00 0.00 0.00 0.00 0.00 0.00 0.00 0.00 0.00 0.00 0.00 0.00 0.00 0.00 0.00 0.00 0.00 0.00 0.00 0.00 0.01 0.01 0.01 0.02 0.04 0.03 0.04 0.06 0.05 0.07 0.11 0.11 0.13 0.11 0.08
0.00 0.00 0.00 0.00 0.00 0.00 0.00 0.00 0.00 0.00 0.00 0.00 0.00 0.00 0.00 0.00 0.00 0.00 0.00 0.00 0.00 0.00 0.00 0.00 0.00 0.00 0.00 0.00 0.01 0.01 0.01 0.01 0.02 0.02 0.03 0.06 0.08 0.07 0.07 0.10 0.13 0.18 0.20 0.15
0.00 0.00 0.00 0.00 0.00 0.00 0.00 0.00 0.00 0.00 0.00 0.00 0.00 0.00 0.00 0.00 0.00 0.00 0.00 0.00 0.00 0.00 0.00 0.01 0.01 0.01 0.02 0.01 0.01 0.01 0.01 0.02 0.03 0.04 0.05 0.06 0.08 0.09 0.08 0.10 0.11 0.13 0.16 0.17
0.00 0.00 0.00 0.00 0.00 0.00 0.00 0.00 0.00 0.00 0.00 0.00 0.00 0.00 0.00 0.00 0.00 0.00 0.00 0.00 0.00 0.01 0.02 0.02 0.03 0.02 0.02 0.02 0.01 0.02 0.02 0.03 0.04 0.05 0.08 0.09 0.09 0.09 0.08 0.05 0.06 0.06 0.05 0.05
0.00 0.00 0.00 0.00 0.00 0.00 0.00 0.00 0.00 0.00 0.00 0.01 0.04 0.02 0.01 0.00 0.00 0.00 0.00 0.00 0.01 0.02 0.04 0.04 0.03 0.03 0.03 0.03 0.03 0.04 0.04 0.06 0.07 0.07 0.07 0.07 0.06 0.05 0.03 0.03 0.03 0.03 0.05 0.03
0.00 0.00 0.00 0.00 0.00 0.01 0.09 0.09 0.01 0.00 0.02 0.04 0.02 0.05 0.12 0.08 0.02 0.00 0.01 0.04 0.10 0.13 0.11 0.07 0.05 0.04 0.05 0.04 0.03 0.02 0.02 0.02 0.03 0.02 0.03 0.03 0.03 0.02 0.02 0.01 0.01 0.02 0.04 0.04
0.00 0.00 0.00 0.00 0.00 0.01 0.02 0.01 0.00 0.01 0.01 0.01 0.00 0.02 0.10 0.14 0.10 0.10 0.07 0.06 0.07 0.08 0.07 0.04 0.04 0.03 0.02 0.02 0.01 0.01 0.01 0.01 0.02 0.02 0.01 0.02 0.02 0.02 0.01 0.01 0.01 0.02 0.01 0.01
0.00 0.00 0.00 0.00 0.00 0.00 0.01 0.01 0.01 0.00 0.00 0.00 0.00 0.00 0.01 0.03 0.05 0.09 0.10 0.07 0.04 0.01 0.01 0.01 0.02 0.02 0.01 0.01 0.01 0.01 0.01 0.01 0.01 0.01 0.01 0.02 0.02 0.02 0.01 0.01 0.01 0.02 0.01 0.01
0.00 0.00 0.00 0.00 0.00 0.00 0.00 0.00 0.00 0.00 0.00 0.00 0.00 0.00 0.00 0.01 0.01 0.01 0.01 0.02 0.02 0.01 0.01 0.02 0.01 0.02 0.01 0.01 0.01 0.01 0.01 0.01 0.02 0.01 0.02 0.02 0.03 0.02 0.01 0.02 0.02 0.02 0.02 0.02
0.00 0.00 0.01 0.01 0.01 0.01 0.00 0.00 0.00 0.00 0.00 0.00 0.01 0.01 0.01 0.01 0.00 0.00 0.00 0.00 0.01 0.01 0.01 0.02 0.02 0.02 0.01 0.02 0.02 0.01 0.02 0.02 0.02 0.01 0.02 0.02 0.02 0.01 0.02 0.02 0.02 0.02 0.02 0.01
0.00 0.00 0.01 0.02 0.03 0.05 0.04 0.03 0.01 0.00 0.01 0.01 0.01 0.01 0.00 0.00 0.00 0.00 0.01 0.01 0.00 0.01 0.01 0.02 0.02 0.01 0.01 0.02 0.03 0.01 0.01 0.02 0.01 0.01 0.01 0.01 0.01 0.01 0.01 0.01 0.01 0.01 0.01 0.01
0.00 0.01 0.01 0.02 0.02 0.03 0.05 0.06 0.05 0.03 0.01 0.00 0.01 0.01 0.00 0.00 0.01 0.00 0.00 0.00 0.00 0.01 0.02 0.02 0.02 0.01 0.01 0.04 0.03 0.01 0.01 0.01 0.01 0.01 0.01 0.01 0.01 0.01 0.01 0.01 0.01 0.01 0.01 0.01
0.01 0.01 0.01 0.02 0.03 0.03 0.04 0.05 0.05 0.05 0.03 0.02 0.02 0.01 0.00 0.00 0.01 0.00 0.00 0.00 0.01 0.01 0.03 0.02 0.01 0.01 0.03 0.04 0.03 0.02 0.01 0.01 0.01 0.01 0.01 0.01 0.01 0.01 0.01 0.01 0.01 0.01 0.01 0.01
0.00 0.01 0.01 0.02 0.01 0.01 0.01 0.02 0.04 0.04 0.03 0.03 0.04 0.03 0.01 0.00 0.00 0.00 0.01 0.01 0.01 0.03 0.04 0.03 0.02 0.02 0.03 0.04 0.03 0.02 0.01 0.01 0.02 0.02 0.01 0.01 0.01 0.01 0.01 0.01 0.00 0.01 0.01 0.00
0.00 0.01 0.02 0.02 0.01 0.00 0.00 0.00 0.01 0.02 0.02 0.02 0.04 0.04 0.02 0.02 0.02 0.01 0.02 0.02 0.03 0.04 0.06 0.05 0.03 0.02 0.02 0.03 0.03 0.02 0.02 0.01 0.01 0.01 0.01 0.01 0.01 0.01 0.01 0.01 0.01 0.01 0.01 0.01

GFSNGP_prec_precacc24_189.txt.gz
Total_Precipitation_Accumulation
0.00 0.00 0.00 0.00 0.00 0.00 0.00 0.00 0.01 0.00 0.00 0.00 0.01 0.00 0.00 0.00 0.00 0.00 0.00 0.00 0.00 0.00 0.00 0.00 0.00 0.00 0.00 0.00 0.00 0.00 0.00 0.00 0.00 0.00 0.01 0.02 0.02 0.02 0.01 0.01 0.00 0.01 0.02 0.01
0.02 0.00 0.01 0.00 0.00 0.00 0.00 0.00 0.00 0.00 0.00 0.00 0.00 0.00 0.00 0.00 0.00 0.00 0.00 0.00 0.00 0.00 0.00 0.00 0.00 0.00 0.00 0.00 0.00 0.00 0.00 0.00 0.00 0.01 0.02 0.03 0.03 0.02 0.01 0.01 0.02 0.02 0.02 0.04
0.11 0.03 0.12 0.18 0.01 0.00 0.00 0.00 0.00 0.00 0.00 0.00 0.00 0.00 0.00 0.01 0.00 0.00 0.00 0.00 0.00 0.00 0.00 0.00 0.00 0.00 0.00 0.00 0.00 0.00 0.00 0.00 0.00 0.01 0.01 0.02 0.03 0.04 0.05 0.05 0.04 0.05 0.06 0.05
0.38 0.26 0.66 0.33 0.00 0.00 0.00 0.00 0.00 0.00 0.00 0.00 0.00 0.01 0.01 0.00 0.00 0.00 0.00 0.00 0.00 0.00 0.00 0.00 0.00 0.00 0.00 0.00 0.00 0.00 0.01 0.01 0.00 0.01 0.01 0.02 0.04 0.06 0.05 0.06 0.07 0.06 0.03 0.03
0.98 0.67 0.34 0.02 0.00 0.00 0.00 0.00 0.00 0.00 0.00 0.00 0.00 0.00 0.00 0.00 0.00 0.00 0.00 0.00 0.00 0.00 0.00 0.00 0.00 0.00 0.00 0.00 0.02 0.03 0.03 0.03 0.02 0.02 0.04 0.06 0.09 0.10 0.10 0.06 0.03 0.02 0.02 0.04
1.14 0.81 0.50 0.03 0.00 0.00 0.00 0.02 0.00 0.00 0.00 0.00 0.00 0.00 0.00 0.00 0.00 0.00 0.00 0.00 0.00 0.00 0.00 0.00 0.00 0.00 0.00 0.01 0.02 0.03 0.03 0.02 0.04 0.06 0.08 0.08 0.07 0.08 0.06 0.02 0.02 0.02 0.04 0.04
1.10 0.68 0.18 0.00 0.00 0.00 0.05 0.06 0.00 0.00 0.00 0.00 0.00 0.00 0.00 0.00 0.00 0.00 0.00 0.00 0.00 0.00 0.00 0.00 0.00 0.00 0.01 0.01 0.02 0.02 0.02 0.02 0.02 0.03 0.03 0.04 0.04 0.04 0.02 0.01 0.02 0.03 0.03 0.02
0.90 0.73 0.28 0.00 0.00 0.01 0.00 0.00 0.00 0.00 0.00 0.00 0.00 0.00 0.00 0.00 0.00 0.00 0.00 0.00 0.00 0.00 0.00 0.00 0.00 0.00 0.00 0.00 0.01 0.01 0.01 0.01 0.01 0.01 0.00 0.00 0.00 0.01 0.01 0.01 0.01 0.02 0.03 0.03
0.17 0.16 0.01 0.00 0.00 0.00 0.00 0.00 0.00 0.00 0.00 0.00 0.00 0.00 0.00 0.00 0.00 0.00 0.00 0.00 0.00 0.00 0.00 0.00 0.00 0.00 0.00 0.00 0.00 0.00 0.00 0.00 0.00 0.00 0.00 0.00 0.00 0.01 0.01 0.01 0.01 0.02 0.03 0.03
0.07 0.04 0.02 0.02 0.01 0.00 0.00 0.00 0.00 0.00 0.00 0.00 0.00 0.00 0.00 0.00 0.00 0.00 0.00 0.00 0.00 0.00 0.00 0.00 0.00 0.00 0.00 0.00 0.00 0.00 0.00 0.00 0.00 0.00 0.01 0.01 0.01 0.01 0.01 0.01 0.01 0.01 0.02 0.03
0.02 0.00 0.00 0.01 0.00 0.00 0.00 0.00 0.00 0.00 0.00 0.00 0.00 0.00 0.00 0.00 0.00 0.00 0.00 0.00 0.00 0.00 0.00 0.00 0.00 0.00 0.00 0.00 0.00 0.00 0.00 0.00 0.01 0.01 0.02 0.01 0.01 0.01 0.01 0.01 0.01 0.01 0.02 0.03
0.02 0.00 0.00 0.00 0.00 0.00 0.00 0.00 0.00 0.00 0.00 0.00 0.00 0.00 0.00 0.00 0.00 0.00 0.00 0.00 0.00 0.00 0.00 0.00 0.00 0.00 0.00 0.00 0.00 0.00 0.00 0.00 0.01 0.02 0.02 0.01 0.01 0.03 0.03 0.02 0.02 0.02 0.02 0.04
0.00 0.00 0.00 0.00 0.00 0.00 0.00 0.00 0.00 0.00 0.00 0.00 0.00 0.00 0.00 0.00 0.00 0.00 0.00 0.00 0.00 0.00 0.00 0.00 0.00 0.00 0.00 0.00 0.00 0.00 0.00 0.00 0.01 0.02 0.01 0.01 0.01 0.01 0.03 0.06 0.06 0.06 0.06 0.07
0.00 0.00 0.00 0.00 0.00 0.00 0.00 0.00 0.00 0.00 0.00 0.00 0.00 0.00 0.00 0.00 0.00 0.00 0.00 0.00 0.00 0.00 0.00 0.00 0.00 0.00 0.00 0.00 0.00 0.00 0.00 0.00 0.00 0.01 0.01 0.02 0.03 0.03 0.03 0.05 0.09 0.12 0.13 0.12
0.00 0.00 0.00 0.00 0.00 0.00 0.00 0.00 0.00 0.00 0.00 0.00 0.00 0.00 0.00 0.00 0.00 0.00 0.00 0.00 0.00 0.00 0.00 0.01 0.01 0.01 0.01 0.01 0.01 0.01 0.00 0.01 0.02 0.02 0.03 0.04 0.05 0.06 0.05 0.06 0.06 0.08 0.10 0.13
0.00 0.00 0.00 0.00 0.00 0.00 0.00 0.00 0.00 0.00 0.00 0.00 0.00 0.00 0.00 0.00 0.00 0.00 0.00 0.00 0.00 0.01 0.02 0.02 0.02 0.02 0.02 0.01 0.01 0.02 0.02 0.03 0.03 0.03 0.05 0.06 0.08 0.07 0.07 0.05 0.05 0.04 0.04 0.04
0.00 0.01 0.01 0.01 0.00 0.00 0.00 0.00 0.00 0.00 0.00 0.00 0.00 0.00 0.00 0.00 0.00 0.00 0.00 0.00 0.01 0.02 0.04 0.04 0.03 0.03 0.02 0.03 0.03 0.04 0.04 0.05 0.06 0.06 0.06 0.05 0.05 0.04 0.03 0.03 0.02 0.03 0.04 0.02
0.01 0.01 0.01 0.01 0.01 0.00 0.00 0.00 0.00 0.00 0.00 0.00 0.01 0.04 0.11 0.08 0.02 0.00 0.01 0.04 0.10 0.13 0.11 0.07 0.05 0.04 0.04 0.03 0.02 0.02 0.02 0.02 0.02 0.02 0.02 0.03 0.03 0.02 0.02 0.01 0.01 0.02 0.03 0.03
0.00 0.00 0.00 0.00 0.00 0.00 0.00 0.00 0.00 0.00 0.00 0.00 0.00 0.01 0.10 0.14 0.10 0.10 0.07 0.06 0.07 0.07 0.07 0.04 0.04 0.03 0.02 0.02 0.01 0.00 0.01 0.01 0.02 0.02 0.01 0.03 0.03 0.02 0.01 0.01 0.01 0.02 0.01 0.01
0.01 0.01 0.01 0.00 0.00 0.00 0.00 0.00 0.00 0.00 0.00 0.00 0.00 0.00 0.01 0.03 0.05 0.09 0.10 0.07 0.04 0.01 0.01 0.01 0.01 0.01 0.01 0.01 0.01 0.01 0.01 0.01 0.01 0.01 0.02 0.02 0.02 0.02 0.02 0.01 0.01 0.02 0.01 0.01
0.01 0.00 0.01 0.01 0.00 0.00 0.00 0.00 0.00 0.00 0.00 0.00 0.00 0.00 0.00 0.01 0.01 0.01 0.01 0.01 0.02 0.01 0.01 0.02 0.01 0.01 0.01 0.01 0.01 0.01 0.01 0.01 0.02 0.01 0.02 0.02 0.03 0.02 0.01 0.02 0.01 0.02 0.02 0.02
0.00 0.00 0.01 0.01 0.00 0.00 0.00 0.00 0.00 0.00 0.00 0.00 0.01 0.01 0.01 0.01 0.00 0.00 0.00 0.00 0.01 0.01 0.01 0.01 0.02 0.02 0.01 0.02 0.01 0.01 0.01 0.01 0.02 0.01 0.02 0.02 0.02 0.01 0.02 0.02 0.02 0.01 0.01 0.01
0.00 0.00 0.01 0.01 0.01 0.03 0.03 0.02 0.01 0.00 0.01 0.01 0.01 0.01 0.00 0.00 0.00 0.00 0.00 0.01 0.00 0.01 0.01 0.02 0.02 0.02 0.01 0.02 0.03 0.01 0.01 0.02 0.01 0.01 0.01 0.01 0.01 0.01 0.01 0.01 0.01 0.01 0.01 0.01
0.00 0.00 0.01 0.01 0.01 0.02 0.04 0.06 0.04 0.02 0.01 0.00 0.01 0.01 0.00 0.00 0.01 0.00 0.00 0.00 0.00 0.01 0.02 0.03 0.02 0.01 0.01 0.04 0.03 0.01 0.01 0.01 0.01 0.01 0.01 0.02 0.01 0.01 0.01 0.01 0.01 0.01 0.01 0.01
0.00 0.00 0.01 0.01 0.01 0.01 0.02 0.02 0.03 0.04 0.02 0.02 0.02 0.01 0.00 0.00 0.01 0.00 0.00 0.00 0.01 0.01 0.03 0.02 0.01 0.01 0.02 0.04 0.03 0.02 0.01 0.01 0.01 0.01 0.02 0.02 0.02 0.01 0.01 0.01 0.01 0.01 0.01 0.01
0.00 0.01 0.01 0.01 0.00 0.00 0.00 0.00 0.01 0.02 0.03 0.03 0.03 0.02 0.01 0.00 0.00 0.00 0.01 0.01 0.01 0.02 0.04 0.02 0.02 0.02 0.03 0.04 0.03 0.02 0.01 0.01 0.02 0.02 0.02 0.01 0.01 0.01 0.01 0.01 0.01 0.01 0.01 0.00
0.00 0.01 0.01 0.02 0.00 0.00 0.00 0.00 0.00 0.01 0.02 0.02 0.03 0.03 0.02 0.02 0.02 0.01 0.02 0.02 0.03 0.04 0.06 0.04 0.02 0.02 0.03 0.03 0.03 0.03 0.02 0.01 0.01 0.01 0.01 0.01 0.02 0.02 0.01 0.01 0.01 0.01 0.01 0.01